[{"header": {"dx": 0.06612293990616946, "dy": 0.0552356325346848, "nx": 98, "ny": 59, "la1": 35.046912555036876, "la2": 31.78801023549047, "lo1": -121.43107172385933, "lo2": -114.95102361305473, "refTime": "2026041106", "parameterCategory": 1, "parameterNumber": 2}, "data": [-0.0, -0.0, -2.89, -4.66, -4.66, -4.66, -0.0, -0.0, 2.43, 2.43, 1.96, 1.91, 3.96, 5.0, 3.25, 3.39, 3.39, 2.6, 3.39, 2.6, 2.71, 3.68, 3.39, 10.73, 10.73, 11.18, 10.73, -0.0, -0.0, -6.2, -9.3, -10.84, -10.73, -6.23, -5.36, -2.8, 0.0, 3.2, 4.22, 8.05, 1.67, -0.0, -0.0, 7.19, 10.12, 14.38, 16.32, 17.58, 16.85, 13.97, 10.79, 10.12, 9.17, 8.85, 9.17, 10.12, 10.91, 11.5, 11.58, 11.99, 12.45, 12.72, 12.58, 12.96, 12.96, 13.28, 13.15, 12.62, 13.56, 14.47, 14.75, 14.18, 13.41, 12.07, 12.52, 12.52, 12.52, 13.41, 13.83, 12.42, 0.0, -4.4, -3.11, -1.26, 0.0, 1.04, 2.46, 3.8, 5.31, 7.13, 9.52, 9.76, 10.12, 10.01, 10.66, 11.2, 10.91, 10.28, -0.0, -0.0, -0.0, -2.43, -4.66, -5.48, -2.98, -0.0, 2.43, 2.09, 1.9, 2.54, 2.82, -0.0, -0.0, -0.0, -0.0, -0.0, -0.0, 2.02, 2.93, 2.37, 2.37, 3.68, -0.0, -10.73, -7.27, -10.28, -10.73, -10.84, -11.28, -12.07, -11.28, -5.6, -5.21, -3.97, 0.0, 4.46, 7.6, 8.67, 3.11, 2.28, 5.8, 11.44, 15.36, 17.7, 19.47, 18.05, 16.12, 11.99, 11.12, 11.12, 10.37, 10.01, 8.85, 9.17, 11.16, 11.72, 11.99, 12.18, 12.21, 11.92, 12.3, 12.96, 12.96, 12.96, 12.89, 12.62, 13.97, 14.88, 15.52, 15.07, 14.22, 12.3, 11.92, 12.66, 12.47, 13.41, 13.83, 12.42, 0.0, -4.4, -3.11, -1.26, 0.0, 1.04, 2.46, 3.8, 5.31, 7.13, 9.52, 9.76, 10.12, 10.01, 10.66, 11.2, 10.91, 10.28, -0.0, -0.0, -0.0, -2.89, -2.43, -4.66, -2.5, -0.0, -0.0, 2.02, 1.77, 1.45, 2.82, -0.0, -0.0, -0.0, -0.0, -0.0, -0.0, -0.0, -0.0, 2.82, 2.28, 3.82, 3.04, -0.0, -6.95, -6.95, -9.33, -10.41, -11.71, -12.52, -12.07, -8.94, -6.71, -6.01, 0.0, 6.32, 8.4, 8.55, 3.68, 6.2, 11.38, 15.99, 19.29, 20.12, 20.12, 18.33, 13.15, 12.71, 12.71, 13.01, 12.3, 11.2, 8.85, 11.16, 11.5, 11.99, 12.21, 11.99, 11.77, 11.26, 10.79, 11.6, 12.96, 12.96, 12.3, 12.87, 13.8, 14.74, 15.11, 15.52, 15.18, 11.5, 6.67, 10.19, 11.99, 14.27, 13.74, 13.15, 0.0, -4.4, -2.83, -2.46, -0.99, 0.0, 1.95, 2.69, 4.96, 7.9, 10.25, 10.58, 9.92, 10.3, 10.04, 11.18, 9.33, 8.63, -0.0, -0.0, -0.0, -0.0, -2.43, -4.66, -4.81, -2.5, -0.0, 1.96, 1.71, 1.52, 2.93, -0.0, -0.0, -0.0, -0.0, -0.0, -0.0, -0.0, -0.0, -0.0, 3.53, 5.2, 5.52, 3.53, -0.0, -8.8, -9.39, -8.55, -7.9, -6.97, -5.2, -2.6, -0.0, 2.97, 8.8, 11.18, 11.62, 6.0, 5.98, 9.66, 15.38, 17.02, 17.1, 16.54, 15.2, 12.07, 12.52, 12.96, 12.52, 12.96, 12.96, 11.2, 8.85, 12.3, 12.04, 12.89, 12.25, 11.99, 11.12, 9.84, 8.85, 8.85, 10.79, 12.58, 12.04, 12.25, 12.56, 13.27, 14.49, 14.74, 14.4, 14.11, 0.0, 2.93, 9.16, 12.6, 15.43, 11.99, -2.39, -5.9, -2.83, -3.35, -3.17, -1.26, 0.0, 2.33, 4.99, 8.78, 11.06, 10.43, 9.48, 9.67, 9.6, 6.14, 7.21, 8.37, -0.0, -0.0, -0.0, -0.0, -0.0, -2.43, -4.81, -2.5, -0.0, -0.0, 1.71, 1.52, 2.82, -0.0, -0.0, -0.0, -0.0, -0.0, -0.0, -0.0, -0.0, -0.0, -0.0, 5.2, 2.6, -0.0, -0.0, -0.0, -0.0, -3.65, -5.29, -5.7, -6.76, -4.08, -0.0, 4.15, 6.71, 10.37, 11.06, 4.45, 3.16, 7.8, 9.73, 9.48, 10.37, 10.04, 11.45, 12.52, 12.52, 12.96, 12.96, 12.96, 12.52, 11.2, 11.2, 12.3, 12.58, 12.72, 12.56, 11.99, 9.84, 8.54, 7.68, 7.19, 8.73, 10.3, 10.73, 10.73, 10.09, 11.2, 12.78, 14.77, 14.99, 14.26, 13.86, 0.0, 2.82, 9.46, 14.03, 4.38, -5.06, -4.83, -4.37, -4.71, -4.42, -3.35, 0.0, 3.25, 6.42, 9.39, 10.22, 9.27, 9.66, 5.95, 2.97, 5.86, 7.76, 8.91, -0.0, -0.0, -0.0, -0.0, -0.0, -2.43, -2.5, -2.43, -0.0, -0.0, 1.71, 3.25, 2.71, -0.0, -0.0, -0.0, -0.0, -0.0, -0.0, -0.0, -0.0, -0.0, -0.0, -0.0, -0.0, -1.98, -0.0, -0.0, -0.0, -0.0, -2.28, -5.63, -7.68, -8.53, -2.63, 4.24, 7.19, 10.65, 12.33, -0.0, -3.16, 2.81, 5.6, 6.63, 6.63, 7.28, 6.94, 8.85, 10.41, 10.41, 10.04, 10.41, 10.41, 8.85, 12.3, 12.3, 12.58, 12.71, 12.72, 11.16, 8.3, 5.6, 6.15, 6.88, 7.26, 9.06, 9.8, 9.17, 8.38, 10.3, 12.26, 13.88, 14.86, 15.12, 16.1, 15.18, 0.0, 3.98, 7.27, -3.82, -6.64, -5.72, -6.01, -5.44, -4.5, -2.57, 0.0, 4.21, 6.56, 7.97, 8.2, 7.51, 5.2, -0.0, 3.49, 7.33, 9.97, 11.11, -0.0, 3.47, 3.47, -0.0, -0.0, -0.0, -2.43, -2.43, -2.35, -0.0, -0.0, 1.39, 2.6, -0.0, -0.0, -0.0, -0.0, -0.0, -0.0, -0.0, -5.8, -6.4, -2.89, -0.0, -0.0, -3.58, -5.64, -0.0, 2.54, 2.1, -0.0, -2.28, -4.4, -5.06, -2.82, -0.0, 8.58, 9.8, 9.8, -0.0, -4.52, -0.0, 6.0, 6.9, 9.22, 7.78, 7.51, 8.15, 6.7, 7.82, 6.94, 7.73, 8.85, 10.01, 11.87, 12.96, 12.96, 12.96, 12.96, 10.79, 4.93, 2.93, 5.15, 6.4, 7.36, 8.84, 9.62, 8.59, 9.48, 12.39, 13.35, 14.11, 15.18, 16.02, 15.83, 16.41, 14.47, 0.0, 0.0, 0.0, -5.59, -5.72, -5.98, -5.45, -3.98, -0.93, 1.1, 3.52, 5.62, 5.15, 2.45, -8.85, -1.67, -0.0, 6.32, 8.48, 11.11, 11.62, 3.36, 3.47, 3.47, 2.81, -0.0, -0.0, -2.43, -2.43, -2.35, -0.0, -0.0, -0.0, -0.0, -0.0, -0.0, -0.0, -0.0, -0.0, -0.0, -0.0, 13.41, -13.41, -11.99, -4.95, -3.69, -8.43, -11.06, -0.0, 4.66, 4.24, -2.93, -2.93, -2.45, -0.0, -0.0, -0.0, 11.6, 10.38, 10.4, 8.22, -0.0, -0.0, 11.38, 12.01, 11.38, 10.12, 7.85, 7.85, 6.4, 6.43, 6.76, 7.85, 8.85, 10.41, 11.2, 12.52, 12.07, 11.45, 12.07, 3.82, 1.16, 0.99, 3.81, 5.73, 7.82, 8.99, 10.04, 10.73, 12.74, 13.86, 14.3, 14.75, 15.2, 15.62, 16.06, 15.2, 14.75, 12.52, 12.52, 12.79, 0.0, -5.4, -5.43, -3.97, -1.84, 0.0, 2.02, 2.43, 3.01, 0.0, -10.0, -3.4, -1.49, 1.67, 7.28, 9.54, 11.55, 11.62, 3.36, 3.47, 3.47, 2.81, 2.89, -0.0, -0.0, -2.43, -2.81, -2.54, -1.91, -0.0, -0.0, -0.0, -0.0, -0.0, -0.0, -0.0, -0.0, -0.0, -0.0, -0.0, -0.0, -0.0, -4.1, -7.9, -9.33, -9.8, -0.0, -0.0, -7.69, -10.75, -6.8, -0.0, 8.85, 11.62, 11.18, 11.18, 10.28, 8.55, 5.8, -0.0, 10.43, 11.2, 9.67, 7.9, 7.51, 6.0, 6.63, 7.51, 8.59, 9.27, 10.04, 10.8, 10.8, 11.03, 11.62, 8.22, 11.62, -0.0, -0.0, 1.03, 2.92, 5.46, 7.36, 8.99, 12.09, 11.9, 13.2, 13.8, 13.15, 12.63, 13.47, 14.08, 13.57, 13.57, 12.71, 12.0, 13.72, 16.09, 11.7, -5.31, -2.95, -2.52, -1.05, 0.0, 1.29, 2.13, 0.0, 9.83, -2.17, -1.95, -0.0, 3.6, 8.05, 10.04, 12.07, 11.18, 3.36, 6.2, 6.4, 2.81, 2.43, -0.0, -0.0, -0.0, -2.35, -2.54, -2.45, -2.54, -0.0, -0.0, -0.0, -0.0, -0.0, -0.0, -0.0, -0.0, 4.1, 4.1, -0.0, -0.0, -0.0, -0.0, -4.2, -7.59, -0.0, -0.0, -6.6, -16.54, -15.65, 13.86, 12.07, 7.9, 10.73, 9.39, 11.62, 11.6, 9.17, 9.17, 10.4, 10.28, 9.97, 8.94, 7.26, 8.53, 9.17, 9.96, 9.62, 9.27, 9.08, 10.4, 11.62, 11.62, 8.22, 0.0, -5.2, -1.28, -0.0, -0.0, 2.89, 5.33, 7.93, 10.27, 12.57, 13.98, 12.7, 12.91, 10.62, 10.73, 12.18, 12.56, 12.6, 11.38, 9.86, 10.4, 11.84, 13.59, 7.8, 9.17, 0.0, 0.0, 0.0, 2.39, 5.7, 9.97, 10.28, 6.32, 1.95, -0.0, -0.0, 6.64, 10.18, 11.11, 12.07, 10.28, 6.2, 6.2, 6.4, 5.48, 2.43, 2.43, 2.43, -0.0, -0.0, -2.2, -2.54, -0.0, -0.0, -0.0, -0.0, -0.0, 4.95, 3.79, 7.0, 12.01, 12.33, 9.67, 4.12, 3.58, 4.66, -0.0, -0.0, -4.6, -0.0, -0.0, -0.0, -9.17, -12.07, -11.18, -11.18, -0.0, 5.2, 8.22, 10.8, 11.53, 10.12, 11.99, 11.03, 11.18, 10.73, 9.2, 8.58, 7.9, 10.0, 8.73, 6.76, 5.86, 4.9, 4.24, 6.7, 0.0, -3.14, -11.45, -6.21, -2.28, -1.15, -0.0, 2.81, 7.16, 9.22, 11.25, 12.22, 12.84, 11.94, 11.33, 12.14, 5.8, 8.41, 10.63, 10.82, 11.09, 9.17, 0.0, 12.52, -0.0, 3.69, 8.28, 10.75, 12.96, 11.62, 10.73, 10.28, 9.29, 9.54, 6.79, 3.8, 2.49, 4.71, 8.93, 11.18, 12.07, 10.28, 10.73, 5.15, 5.15, 5.31, 5.48, 2.43, 2.43, 2.43, 2.09, -0.0, -0.0, -0.0, -0.0, -0.0, -0.0, 2.63, 5.6, 5.6, 6.6, 11.38, 15.19, 14.79, 13.39, 7.0, -0.0, 4.24, 4.1, 3.96, -0.0, -0.0, -0.0, -0.0, -0.0, -0.0, -6.95, -10.73, 10.28, 7.27, 8.53, 5.6, 9.48, 9.8, 9.48, 11.45, 11.18, 9.2, 5.63, 5.95, 3.39, 3.39, 2.19, 2.16, 2.72, 2.47, 2.55, 2.2, -0.0, -14.3, -12.52, -8.85, -3.82, -0.0, 1.58, 4.66, 7.59, 8.57, 9.2, 8.11, 8.0, 7.77, 7.69, 7.36, 14.3, 0.0, 5.11, 8.3, 7.44, -12.96, -13.41, -12.52, -0.0, -0.0, 6.0, 8.85, 12.65, 11.2, 11.92, 11.35, 9.77, 9.32, 8.0, 4.4, -0.0, 9.2, 11.18, 10.58, 11.35, 10.18, 10.73, 7.13, 7.13, 5.31, 5.48, 4.66, 4.66, 2.43, 2.02, 2.02, 1.96, -0.0, -0.0, -0.0, 2.98, 3.07, 6.8, 6.4, 6.0, 9.17, 10.73, 12.45, 11.99, 7.44, -0.0, 2.63, 6.9, 9.48, 9.48, 8.53, 5.46, 2.6, 3.68, -0.0, -0.0, -7.27, 9.83, 10.28, -0.0, 5.2, 8.53, 8.85, 8.85, 8.53, 4.6, -0.0, -0.0, -0.0, -0.0, -0.0, -0.0, 0.89, 0.86, -0.0, 0.78, 1.19, 3.88, 5.99, 7.76, -0.0, -3.68, -0.0, 3.25, 5.15, 6.0, 3.01, 2.18, 1.51, 3.16, 5.54, 9.48, 12.62, 10.18, -10.75, -5.6, 0.0, 0.0, -6.2, -0.0, 6.0, 8.85, 5.2, 8.22, 11.2, 11.99, 10.37, 12.27, 13.57, 12.31, 10.65, 8.8, 8.94, -4.6, 4.8, 7.59, 9.2, 11.09, 9.55, 10.73, 7.13, 7.13, 7.13, 4.52, 4.66, 4.52, 3.93, 2.02, 2.02, 2.02, 2.02, 2.35, 2.43, 2.98, 5.98, 5.98, 7.2, 6.8, 6.6, 11.44, 13.28, 13.28, 6.6, -0.0, -0.0, 5.81, 7.36, 8.94, 9.8, 7.78, 5.2, 3.68, -0.0, -0.0, -0.0, -6.95, -0.0, -0.0, -0.0, 4.8, 5.2, 3.53, 5.0, 3.53, -0.0, -0.0, -0.0, -0.0, -0.0, -0.0, -0.0, -0.0, -2.2, -2.72, -0.0, 2.52, 5.4, 7.68, 6.4, -0.0, -1.13, 1.66, 1.66, 1.66, -0.0, -0.0, -0.72, -0.0, 5.11, 9.39, 11.92, 10.89, 7.13, -8.22, -5.95, -0.0, -0.0, 5.64, 8.18, 10.43, 9.48, 9.62, 11.44, 13.57, 10.87, 12.21, 13.57, 13.25, 10.38, 9.75, 9.83, -2.49, 0.0, 4.8, 6.7, 9.3, 9.75, 9.6, 6.2, 6.2, 6.2, 6.4, 6.4, 3.93, 3.93, 3.93, 3.93, 3.93, 3.93, 4.05, 4.66, 4.81, 5.09, 8.51, 6.14, 7.4, 7.2, 12.52, 14.11, 12.16, 9.39, 3.9, -0.0, 5.23, 7.2, 9.39, 10.75, 10.43, 7.69, 3.04, -0.0, -0.0, -0.0, -0.0, -0.0, -0.0, -0.0, 4.6, 4.8, -0.0, 4.8, 3.39, -0.0, -0.0, -0.0, -0.0, -0.0, -0.0, -0.0, -0.0, -3.11, -8.49, 8.49, -0.0, 3.11, 5.52, 6.77, 4.39, -0.0, -0.0, -0.0, -0.0, -0.0, -1.33, -1.2, 1.28, 5.32, 7.68, 9.6, 10.6, 8.76, 10.73, -9.8, -4.95, -0.0, 5.81, 8.97, 9.91, 11.25, 11.09, 10.66, 10.0, 10.2, 12.52, 13.01, 11.27, 10.4, 10.0, 9.96, 0.0, -2.49, 0.0, 5.7, 11.18, 5.0, 5.0, 6.2, 6.2, 6.2, 6.4, 5.63, 5.63, 3.93, 3.47, 3.93, 3.93, 4.05, 4.05, 4.05, 4.18, 7.0, 7.2, 8.51, 8.74, 10.19, 11.7, 14.39, 12.87, 9.66, 7.4, -0.0, -0.0, 7.4, 8.93, 12.52, 13.59, 10.75, -0.0, -0.0, -0.0, -3.25, -2.17, -0.0, -0.0, -0.0, -0.0, -0.0, 3.39, 4.8, 3.11, -0.0, -0.0, -0.0, -0.0, -0.0, -0.0, -0.0, -0.0, -0.0, 8.94, 8.49, 8.49, -0.0, 3.11, 7.26, 5.2, 1.69, -0.0, -0.0, -0.0, -0.0, -3.39, -1.33, 1.76, 3.92, 5.8, 8.46, 11.7, 13.76, 10.96, 13.88, -0.0, 1.56, 7.82, 10.17, 11.58, 12.29, 13.39, 12.65, 11.6, 10.08, 9.83, 10.08, 10.18, 10.18, 9.8, 9.6, 6.95, 7.27, 10.28, 9.97, 8.93, 6.2, 6.2, 6.2, 6.2, 6.4, 6.2, 5.46, 5.63, 5.02, 3.58, 3.47, 3.47, 3.58, 4.05, 5.99, 5.99, 6.16, 7.0, 7.0, 8.51, 8.74, 12.01, 13.76, 13.39, 9.66, 9.66, 7.2, 16.09, 16.09, 14.39, 15.61, 16.05, 9.42, -0.0, -3.16, -4.52, -3.32, -1.75, -0.0, -0.0, -0.0, -0.0, -0.0, -0.0, -0.0, 2.69, -0.0, -0.0, -0.0, -0.0, 2.69, 4.0, 4.0, 4.2, 4.2, 6.64, 6.64, 6.64, 4.4, 7.27, 9.3, 8.22, 5.0, 4.6, 3.11, -0.0, -3.11, -3.8, -2.83, -2.17, -0.0, 4.54, 9.8, 13.54, 16.96, 15.61, 12.79, 5.64, 6.8, 11.06, 12.87, 12.65, 12.94, 13.81, 13.37, 12.7, 11.92, 9.4, 8.18, 10.73, 10.18, 9.8, 9.49, 9.04, 8.8, 9.96, 10.0, 8.58, 7.9, 7.9, 6.2, 6.2, 6.4, 6.4, 6.88, 5.46, 5.02, 3.47, 3.58, 3.58, 3.58, 5.34, 5.34, 5.34, 5.99, 5.99, 7.0, 7.2, 10.33, 11.7, 15.27, 11.38, 9.39, 9.12, 11.06, 16.09, 16.54, 16.54, 16.54, 14.51, 4.23, -0.0, -5.65, -7.2, -5.6, -3.15, -1.75, -0.0, -0.0, -0.0, -0.0, -0.0, -0.0, -0.0, -0.0, -0.0, -0.0, -0.0, 4.2, 4.2, 6.64, 6.95, 6.95, 6.95, 6.95, 6.95, 6.95, 7.27, 5.95, 7.9, 7.9, 7.59, 7.27, -0.0, -2.97, -2.69, -4.46, -4.71, -6.95, 10.6, 15.34, 16.53, 19.73, 17.44, 13.9, 8.28, 10.52, 13.26, 14.22, 14.53, 14.1, 13.75, 13.55, 12.09, 10.5, 9.2, 9.75, 9.75, 10.41, 11.03, 9.77, 8.43, 8.8, 9.6, 9.67, 7.9, 7.9, 7.9, 6.2, 6.2, 6.2, 7.1, 6.88, 6.88, 5.02, 3.1, 3.2, 3.2, 5.18, 5.34, 5.49, 5.49, 5.34, 7.6, 5.81, 7.76, 9.77, 9.12, 11.06, 5.09, 7.0, 7.4, 8.43, 7.4, 9.8, 15.19, 15.59, 7.2, 2.87, -0.0, -4.91, -9.67, -8.68, -5.6, -3.11, -3.49, -3.11, -0.0, -0.0, -0.0, 10.28, -0.0, 6.95, -0.0, -0.0, -0.0, 6.64, 4.2, 6.95, 6.95, 6.95, 6.95, 5.46, 5.7, 5.46, 5.95, 7.9, 7.9, 8.93, 8.93, 7.27, -0.0, -4.96, -5.1, -5.1, -6.32, 0.0, 8.53, 13.77, 16.97, 22.13, 20.63, 17.28, 15.11, 14.99, 14.94, 15.31, 15.43, 14.3, 14.26, 13.81, 12.52, 11.62, 10.2, 10.32, 10.46, 10.6, 9.96, 9.7, 9.36, 9.85, 10.0, 7.54, 8.22, 8.82, 8.82, 5.46, 5.46, 6.88, 6.88, 6.88, 6.88, 5.02, 3.1, 3.2, 3.2, 4.66, 5.34, 5.49, 7.0, 7.0, 7.54, 7.32, 5.81, 8.05, 9.12, 9.42, 7.2, 5.98, 7.8, 9.92, 9.92, 11.7, 11.38, 8.74, 4.67, 4.23, -0.0, -2.47, -9.67, -9.42, -6.8, -4.1, -4.32, -5.7, -3.8, -0.0, 9.39, 9.39, 6.64, 6.32, 7.59, 6.95, -0.0, -0.0, 6.64, 8.4, 8.4, 6.64, 6.64, 2.83, 5.21, 7.59, 6.95, 8.55, 8.93, 9.75, 9.75, 6.95, -0.0, -3.8, -6.01, -6.32, -2.97, 9.2, 11.4, 13.41, 16.01, 22.55, 23.01, 18.7, 16.84, 14.39, 13.78, 15.54, 15.2, 15.15, 14.75, 14.13, 13.01, 11.95, 11.18, 9.75, 8.55, 9.7, 9.6, 10.58, 11.57, 11.57, 10.79, 8.53, 9.27, 9.86, 9.86, 6.88, 6.88, 6.88, 6.88, 6.88, 6.88, 4.87, 3.1, 3.2, 3.3, 4.66, 5.34, 7.0, 7.0, 7.0, 7.0, 7.32, 7.32, 5.8, 9.12, 10.19, 11.7, 9.92, 8.28, 10.61, 12.01, 12.36, 10.87, 6.87, 4.34, 4.34, 2.16, -2.16, -6.87, -9.42, -7.4, -4.66, -2.54, -0.0, -0.0, -0.0, -0.0, 6.95, 6.95, 4.2, 7.59, 6.95, 6.95, -0.0, 6.64, 6.32, 8.0, 6.32, 5.21, 5.46, 6.32, 8.55, 8.55, 10.18, 8.8, 9.83, 9.83, -0.0, -3.11, -4.96, -4.96, -5.21, -0.0, 3.39, 9.08, 11.6, 14.17, 20.44, 21.17, 18.63, 14.33, 10.49, 11.48, 12.46, 14.84, 15.46, 15.58, 15.11, 14.11, 13.41, 11.62, 9.96, 8.8, 9.85, 9.55, 10.73, 12.52, 12.42, 9.97, 9.66, 10.8, 10.4, 10.4, 6.88, 6.88, 6.88, 6.88, 6.88, 6.88, 4.87, 4.52, 3.2, 3.3, 4.81, 5.34, 6.8, 7.0, 7.0, 8.29, 7.54, 8.18, 9.22, 12.92, 13.26, 12.92, 10.05, 10.05, 12.01, 12.64, 12.33, 8.21, 5.81, 4.12, 4.79, 2.47, -0.0, -4.23, -6.69, -7.6, -2.57, -0.0, -0.0, -0.0, -0.0, -0.0, 2.97, 2.97, 4.96, 5.69, 7.27, 6.95, -0.0, -0.0, 6.01, 3.8, 4.71, 4.96, 6.32, 6.95, 5.46, 5.95, 5.95, 9.83, 8.94, 9.39, -4.2, -2.97, -2.28, -2.28, -2.28, -2.39, -0.0, 2.28, 4.93, 9.22, 16.41, 16.74, -3.32, 2.56, 6.64, 7.35, 7.8, 9.77, 14.42, 14.75, 15.2, 14.3, 13.86, 11.62, 10.08, 9.83, 10.28, 11.05, 11.13, 11.98, 11.5, 10.8, 10.79, 11.03, 11.03, 11.03, 6.88, 6.88, 6.88, 6.88, 6.88, 6.88, 6.4, 4.52, 3.2, 3.3, 3.3, 5.34, 7.0, 7.0, 8.29, 8.29, 8.83, 8.57, 10.75, 12.92, 13.26, 12.57, 9.49, 9.49, 11.7, 11.16, 9.92, 8.65, 6.69, 6.34, 4.54, 2.34, -0.0, -4.01, -6.52, -5.23, -2.65, -0.0, 2.54, 2.28, 2.6, 2.49, 3.11, 2.83, 4.46, 4.22, 6.95, -0.0, -0.0, -0.0, 3.6, 3.8, 6.01, 6.01, 6.32, 6.32, 2.97, 3.82, 3.39, -0.0, -8.94, -8.0, -2.97, -2.17, -3.32, -1.54, -0.0, -0.0, -0.0, -0.0, -2.82, 1.77, 19.31, 14.75, -9.58, -2.7, 2.81, 3.47, 3.42, 3.92, 7.54, 13.57, 13.86, 13.75, 13.67, 12.07, 10.28, 10.58, 11.62, 11.45, 11.99, 11.03, 10.8, 11.09, 11.03, 11.03, 11.03, 11.03, 6.88, 6.88, 6.88, 6.88, 6.88, 6.88, 6.2, 5.02, 3.2, 3.3, 3.69, 5.49, 7.0, 8.29, 8.29, 8.29, 9.09, 8.57, 10.02, 11.38, 12.92, 12.01, 10.05, 8.18, 9.73, 9.17, 9.67, 6.87, 6.87, 7.6, 5.09, -0.0, -2.0, -3.9, -4.42, -5.09, -2.65, -0.0, 2.63, 2.82, 2.49, 2.39, 3.25, 3.25, 4.96, 4.22, 6.95, 6.64, 6.32, 4.0, 6.32, 6.01, 7.6, 6.01, 6.01, 6.01, -0.0, -0.0, -0.0, 2.49, -0.0, -6.01, -3.8, -2.17, -3.32, -1.54, -0.0, -0.0, -0.0, -0.0, -7.27, 14.75, 22.55, 20.86, 17.43, -8.18, 0.0, 1.77, 0.0, 0.0, 1.6, 8.94, 13.15, 13.31, 12.83, 11.46, 10.58, 11.62, 9.66, 6.94, 9.66, 9.17, 10.18, 10.8, 10.68, 11.03, 11.03, 11.03, 6.88, 6.88, 6.88, 6.88, 6.88, 6.88, 6.2, 5.02, 3.2, 3.3, 3.69, 5.34, 7.0, 8.29, 8.29, 8.29, 8.29, 8.83, 9.73, 11.38, 11.38, 12.01, 9.42, 9.17, 10.02, 8.68, 7.6, 6.87, 6.87, 6.69, 4.67, -0.0, -1.94, -4.3, -5.09, -5.09, -3.16, -0.0, 3.47, 2.93, 3.25, 3.11, 3.11, 3.25, 3.11, 6.64, 5.69, 4.71, 7.44, 7.81, 8.0, 9.2, 7.6, 7.2, 7.6, 3.8, -0.0, -1.84, -0.0, 2.39, 6.95, 6.01, -0.0, -2.28, -1.84, -1.84, -0.0, -0.0, -0.0, -10.28, 3.53, 12.58, 17.57, 23.11, 19.82, 18.85, -3.59, 0.0, 0.0, -1.2, 0.0, 3.69, 9.49, 12.65, 11.99, 10.38, 11.18, 5.2, 4.65, 3.96, 6.21, 7.82, 9.92, 10.56, 10.4, 10.27, 10.6, 10.6, 6.88, 6.88, 6.88, 6.88, 6.88, 6.88, 6.88, 5.02, 3.2, 1.63, 3.69, 5.34, 7.0, 7.0, 8.29, 8.29, 8.29, 9.09, 11.06, 12.02, 11.06, 11.38, 9.42, 10.87, 10.59, 8.93, 7.2, 6.69, 6.87, 6.12, 4.12, 1.88, -0.0, -2.34, -5.09, -5.98, -3.9, -0.0, 4.95, 4.24, 3.53, 3.25, 3.11, 3.11, 4.6, 7.27, 6.95, 7.07, 7.44, 9.11, 9.39, 8.49, 9.83, 8.49, 7.6, 3.8, -0.0, -2.54, -4.46, -0.0, 6.95, 7.27, 4.96, -0.0, -0.0, -0.0, -0.0, -2.6, -3.25, -10.28, 0.0, 12.58, 14.47, 18.15, 22.07, 18.31, 20.12, -3.68, 0.0, 0.0, -1.48, 0.0, 5.99, 8.94, 9.66, 12.07, 5.4, 4.48, 3.96, 4.39, 6.3, 8.16, 10.55, 11.12, 9.84, 10.0, 10.0, 10.0, 6.88, 6.88, 6.88, 6.88, 6.88, 7.69, 8.05, 6.88, 3.1, 3.2, 3.69, 5.34, 7.0, 7.54, 8.29, 8.29, 8.29, 10.18, 11.06, 11.06, 11.06, 11.06, 10.3, 10.59, 9.17, 7.4, 4.42, 4.01, 4.12, 4.12, 3.69, 3.69, 1.88, 1.88, -0.0, -0.0, -0.0, -0.0, -0.0, -0.0, -0.0, 3.82, 3.39, 3.11, 4.6, 7.27, 9.2, 8.4, 8.94, 8.94, 8.94, 8.94, 8.05, 7.6, 7.63, 4.22, -0.0, -2.4, -5.06, -5.37, -0.0, 5.21, 5.95, 2.83, -0.0, -0.0, -0.0, -0.0, -6.95, 10.28, 0.0, 9.67, 13.86, 14.65, 16.34, 20.68, 17.53, 5.8, -7.2, 0.0, 0.0, 0.0, 0.0, 0.0, 11.62, 5.4, 5.8, 6.43, 6.21, 4.93, 7.28, 9.69, 10.91, 11.88, 11.12, 10.09, 9.84, 9.84, 6.88, 6.88, 6.88, 6.88, 7.69, 7.69, 8.87, 6.88, 5.02, 3.1, 3.58, 5.34, 6.8, 7.54, 8.83, 8.06, 8.29, 10.18, 11.06, 11.06, 11.06, 11.06, 10.02, 10.02, 8.93, 6.34, 3.9, 1.78, 1.83, 3.59, 3.59, 3.59, 3.69, 1.88, 2.11, -0.0, -0.0, -0.0, -0.0, -0.0, -0.0, 3.14, 3.53, 3.11, 4.6, 6.95, 7.27, 8.8, 8.94, 8.94, 8.94, 8.49, 8.33, 7.06, 5.06, 2.82, -0.0, -0.0, -3.2, -5.37, -3.6, 2.83, 5.46, 5.21, 2.97, -0.0, -0.0, 10.28, 0.0, 0.0, 5.0, 8.53, 10.73, 13.41, 14.18, 16.54, 20.58, 16.39, -3.58, 0.0, 4.8, 0.0, 0.0, 13.41, 6.7, 7.54, 6.87, 7.11, 8.83, 8.44, 8.01, 9.5, 10.66, 11.75, 11.75, 11.3, 11.2, 11.2, 6.88, 6.88, 6.88, 6.88, 7.69, 7.69, 8.87, 7.1, 6.4, 4.52, 5.18, 5.34, 7.76, 7.76, 9.09, 8.83, 8.83, 9.89, 10.75, 10.75, 12.02, 11.06, 10.02, 8.68, 7.0, 3.79, 1.73, 1.78, 1.83, 4.01, 4.01, 3.59, 3.59, 3.59, 2.05, 2.05, -0.0, -0.0, -0.0, -0.0, -0.0, 3.25, 2.82, 3.11, 2.97, 4.4, 7.59, 8.22, 8.22, 8.91, 8.48, 8.0, 6.01, 5.03, 3.72, 1.84, -0.0, -0.0, -1.73, -4.22, -2.4, -0.0, 5.21, 6.64, 3.25, -0.0, 2.6, -0.0, 0.0, 0.0, 5.0, 11.2, 11.2, 10.99, 12.56, 15.94, 18.78, 18.06, 16.09, 12.65, 10.8, 13.41, 13.97, 12.27, 10.01, 9.76, 8.54, 9.8, 10.43, 10.09, 9.84, 9.84, 10.94, 11.12, 12.08, 11.85, 11.73, 11.73, 8.05, 8.05, 8.05, 7.69, 7.69, 8.87, 8.87, 7.1, 6.4, 5.02, 5.02, 5.34, 7.54, 7.76, 9.35, 9.09, 9.89, 9.89, 10.75, 11.68, 12.02, 11.06, 9.77, 8.68, 6.16, 3.39, 1.68, 1.73, 2.0, 2.0, 3.9, 3.9, 3.9, 3.9, 2.05, 2.05, 2.05, -0.0, -0.0, -0.0, 3.16, 3.47, 3.04, 2.39, 1.95, 3.11, 5.4, 4.24, 4.24, 5.6, 6.71, 5.36, 5.31, 4.22, 3.0, 1.84, 1.01, -0.0, -0.0, -2.26, -2.26, -0.0, 3.8, 6.64, -0.0, -0.0, -0.0, 2.6, 2.97, 0.0, 3.53, 10.8, 12.86, 13.37, 12.94, 15.58, 16.62, 16.09, 16.83, 16.54, 15.55, 12.96, 13.05, 12.94, 12.52, 12.79, 12.17, 12.17, 12.17, 11.88, 10.59, 11.16, 11.58, 11.41, 11.6, 12.13, 11.73, 11.73, 7.79, 7.79, 8.05, 8.87, 8.87, 8.87, 8.87, 7.1, 6.4, 5.18, 5.18, 5.02, 7.54, 7.54, 9.09, 9.09, 10.18, 11.06, 11.06, 12.02, 11.06, 11.06, 9.77, 8.68, 5.49, 3.39, 1.68, 1.63, 1.89, 1.94, 2.0, 3.79, 3.79, 3.79, 2.0, 2.0, 2.34, 2.34, 2.72, 3.33, 3.24, 2.98, 2.54, 2.1, 2.17, 3.25, 7.19, 6.4, 4.52, 7.44, 8.22, 7.81, 5.58, 4.02, 2.16, 1.05, -0.0, -0.0, -1.49, -0.0, -0.0, -0.0, 6.01, 8.94, 8.94, -3.8, -2.69, -0.0, 5.7, 10.28, 6.95, 7.59, 12.52, 15.65, 17.31, 17.28, 17.16, 14.9, 14.3, 17.42, 16.54, 16.54, 14.69, 14.17, 14.62, 15.12, 14.84, 14.31, 12.79, 12.21, 11.99, 11.99, 12.21, 11.77, 11.88, 11.88, 11.47, 11.47, 7.79, 7.79, 7.79, 8.87, 8.87, 8.87, 8.87, 7.1, 7.1, 5.18, 5.18, 7.32, 7.32, 7.76, 9.09, 9.09, 11.06, 11.38, 12.36, 13.39, 12.57, 12.57, 9.77, 7.76, 5.49, 4.95, 2.98, 1.42, 2.28, 3.58, 3.79, 3.9, 3.9, 4.3, 2.21, 2.28, 2.28, 2.34, 2.72, 2.72, 2.72, 3.07, 2.72, 2.19, 2.49, 3.53, 7.19, 8.18, 7.69, 8.85, 8.55, 7.63, 6.4, -0.0, -2.6, -0.0, -0.0, -1.73, -1.84, -2.26, -0.0, -0.0, 6.01, 8.49, 8.94, -6.01, -5.69, -0.0, 9.75, 10.73, 9.83, 7.27, 12.52, 15.99, 20.12, 21.22, 15.9, 12.22, 12.92, 15.2, 16.92, 16.66, 15.36, 15.18, 15.9, 16.0, 16.44, 15.47, 13.67, 12.18, 11.85, 11.6, 11.85, 12.3, 11.62, 11.95, 11.52, 11.52, 7.79, 7.79, 7.79, 8.87, 8.87, 8.87, 8.87, 7.93, 7.1, 5.81, 7.32, 7.32, 7.32, 7.32, 9.09, 9.09, 11.06, 12.02, 13.02, 13.8, 12.57, 12.57, 8.93, 7.76, 6.8, 4.81, 2.98, 2.81, 3.01, 4.3, 3.2, 4.95, 5.65, 3.9, 4.42, 2.28, 2.65, 2.72, 2.72, 2.72, 2.72, 2.65, 2.81, 2.37, 2.6, 3.68, 4.1, 4.38, 6.2, 8.22, 7.81, 7.44, 6.32, -0.0, -2.26, -2.8, -2.6, -1.7, -1.98, -1.98, -0.0, 5.37, 6.32, 8.05, -0.0, -0.0, -0.0, 8.49, 9.83, 10.73, 10.28, 10.73, 10.4, 14.03, 19.2, 25.48, 14.71, 12.07, 12.07, 13.39, 14.47, 15.51, 15.55, 15.98, 16.69, 17.62, 17.47, 16.13, 13.94, 12.14, 11.2, 10.8, 12.04, 12.66, 12.58, 11.96, 11.23, 11.23, 7.79, 7.79, 8.59, 8.59, 8.87, 8.87, 8.87, 7.93, 7.1, 7.32, 7.32, 7.54, 7.32, 8.18, 9.73, 10.02, 12.02, 13.02, 13.99, 13.8, 13.8, 12.92, 8.93, 7.2, 4.81, 4.81, 2.98, 3.2, 3.2, 3.2, 4.66, 4.81, 6.35, 5.49, 5.65, 4.42, 2.65, 2.65, 2.72, 2.72, 2.72, 2.72, 2.5, 2.54, 2.82, 3.68, 3.96, -0.0, 6.2, 8.53, 5.46, 4.2, 1.84, -0.0, -0.0, -0.0, -0.0, -0.0, -0.0, -0.0, -0.0, 5.69, 5.69, 6.01, -0.0, -0.0, -0.0, 8.05, 9.39, 10.28, 9.33, 11.62, 11.45, 11.99, 17.46, 23.67, 18.96, 15.02, 13.83, 14.28, 14.69, 15.47, 16.34, 16.73, 16.86, 17.24, 17.57, 15.75, 13.37, 11.87, 9.66, 10.8, 11.45, 12.42, 12.45, 12.24, 11.8, 11.8, 7.79, 7.79, 8.59, 8.59, 8.87, 8.87, 8.87, 9.16, 7.32, 7.32, 7.54, 7.54, 8.43, 8.18, 8.18, 9.73, 11.68, 13.2, 13.59, 14.84, 13.8, 12.57, 7.98, 5.09, 4.95, 3.3, 3.3, 3.2, 3.58, 3.69, 5.34, 5.34, 6.8, 6.8, 7.0, 5.49, 4.42, 2.28, 2.72, 2.72, 2.72, 2.65, 4.81, 4.98, 2.93, 2.82, 3.96, 4.24, 4.24, 4.1, 2.6, 2.02, 2.97, 1.47, 1.4, 1.49, 1.4, 2.12, 1.72, 1.47, 0.96, 2.54, 3.6, 3.6, 3.8, -0.0, -0.0, 8.49, 8.94, 9.39, 9.83, 11.62, 12.79, 12.6, 15.34, 17.77, 18.84, 17.9, 16.19, 15.65, 15.18, 16.07, 16.54, 16.5, 15.91, 15.61, 15.55, 13.57, 10.73, 9.66, 9.3, 10.0, 11.4, 11.62, 12.07, 12.07, 11.93, 11.93, 8.73, 8.73, 9.48, 8.59, 8.87, 8.87, 9.16, 9.16, 9.44, 7.32, 7.54, 8.43, 8.43, 8.18, 8.18, 9.73, 11.68, 13.2, 13.59, 14.84, 14.53, 12.57, 6.34, 3.49, 3.39, 3.3, 3.69, 3.58, 4.05, 4.18, 4.18, 5.99, 5.18, 6.6, 6.6, 5.34, 3.79, 4.3, 2.28, 2.65, 2.65, 2.65, 4.95, 4.98, 5.4, 2.82, 2.93, 4.1, 3.25, 3.14, 2.28, 2.02, 1.62, 2.97, 2.69, 2.54, 2.4, 1.96, 1.84, 0.82, 0.76, 1.7, 2.54, 2.4, 3.6, 6.32, 5.69, 8.49, 8.94, 8.94, 10.73, 10.28, 13.41, 13.34, 14.51, 15.15, 15.07, 17.43, 20.1, 21.19, 19.22, 15.59, 14.64, 14.3, 13.15, 11.64, 11.12, 9.66, 9.3, 9.97, 10.79, 11.4, 11.62, 12.07, 12.07, 12.07, 12.02, 12.02, 9.17, 9.17, 9.48, 9.48, 9.8, 9.8, 10.12, 9.16, 9.44, 8.18, 8.43, 8.43, 9.73, 9.73, 10.43, 10.43, 11.68, 13.2, 14.61, 14.84, 14.84, 11.06, 6.34, 3.49, 3.39, 3.69, 4.18, 4.05, 2.09, 2.5, 2.15, 4.18, 5.81, 5.18, 5.18, 5.18, 5.18, 3.69, 3.79, 2.28, 2.28, 2.28, 4.81, 5.8, 3.82, 4.8, 2.82, 3.04, 2.54, 2.54, -0.0, 2.19, 2.02, 1.93, 1.47, 1.32, 1.25, 1.25, 0.95, 0.89, 0.82, 0.88, 2.54, 2.4, 5.69, 8.0, 5.69, 6.01, 8.94, 8.94, 9.39, 9.97, 12.04, 14.66, 14.64, 13.39, 14.75, 16.44, 20.28, 22.44, 20.53, 14.47, 13.41, 12.96, 11.2, 10.19, 10.61, 10.0, 10.79, 11.91, 11.91, 12.07, 12.07, 12.42, 12.44, 11.88, 11.91, 12.07, 9.17, 9.17, 9.48, 9.48, 9.8, 9.8, 10.12, 9.16, 9.44, 9.44, 9.73, 9.73, 9.73, 10.75, 10.75, 10.43, 10.43, 13.97, 14.61, 15.49, 14.84, 11.06, 5.49, 3.49, 3.39, 3.69, 4.05, 4.05, 4.05, 2.09, 2.15, 2.09, 3.58, 3.58, 5.18, 5.18, 4.52, 4.81, 5.34, 3.79, 4.3, 2.28, 2.09, 4.48, 4.4, 3.98, 4.32, 2.45, 2.63, 2.54, 2.45, -0.0, -0.0, -0.0, 1.75, 1.67, 1.49, -0.0, -0.0, -0.0, -0.0, 1.05, 2.54, 3.2, 5.37, 6.32, 6.01, 7.2, 6.01, -0.0, -0.0, 7.27, 10.8, 13.15, 17.37, 11.68, 7.93, 14.79, 19.16, 20.43, 17.53, 14.35, 13.88, 13.41, 12.71, 12.14, 11.76, 11.56, 11.95, 12.52, 12.52, 12.39, 12.04, 11.87, 11.99, 11.34, 11.45, 11.91, 9.17, 9.17, 9.17, 9.48, 9.8, 9.8, 10.12, 10.12, 9.44, 9.44, 9.73, 9.73, 10.75, 10.75, 10.75, 10.43, 10.43, 12.27, 14.61, 15.05, 14.84, 9.77, 5.49, 4.95, 4.95, 4.81, 5.18, 5.18, 4.52, 3.1, 3.2, 3.2, 3.2, 3.2, 3.1, 3.2, 4.52, 4.52, 4.81, 4.81, 3.79, 3.79, 2.09, 1.71, 3.39, 5.99, 6.2, 5.31, 4.52, 2.72, 2.54, 2.37, -0.0, -0.0, -0.0, -0.0, -0.0, -0.0, -0.0, -0.0, -0.0, -0.0, 1.3, 3.6, 3.6, 6.01, 6.8, 7.2, 3.8, -0.0, -0.0, 2.97, 10.4, 12.25, 13.99, 16.41, 4.95, 8.4, 16.12, 15.62, 14.49, 14.62, 15.27, 14.03, 13.41, 12.86, 12.79, 12.92, 12.52, 12.44, 12.14, 11.72, 10.61, 11.2, 11.2, 10.8, 10.99, 11.45, 9.17, 9.17, 9.17, 9.48, 9.48, 9.8, 9.8, 10.12, 10.12, 9.44, 9.44, 10.43, 10.75, 10.75, 10.43, 11.52, 12.27, 12.27, 14.6, 15.2, 14.42, 10.75, 6.8, 6.35, 6.35, 6.35, 5.99, 6.4, 5.31, 5.31, 4.11, 4.24, 4.24, 4.24, 4.11, 4.52, 4.52, 4.38, 4.52, 4.66, 4.66, 5.34, 3.47, 1.77, 3.68, 6.67, 6.8, 4.95, 4.66, 5.31, 2.72, 2.45, -0.0, -0.0, -0.0, -0.0, -0.0, -0.0, -0.0, -0.0, -0.0, -0.0, -0.0, -0.0, 3.6, 3.6, 7.2, 8.0, -0.0, -0.0, -0.0, -0.0, 10.18, 10.4, 11.5, 13.51, 18.85, 13.59, 13.02, 12.02, 11.88, 15.46, 18.26, 15.53, 12.93, 12.52, 12.52, 12.96, 12.92, 12.79, 11.62, 10.94, 10.41, 10.25, 10.25, 10.04, 10.04, 10.04, 8.85, 8.85, 9.17, 9.17, 10.3, 10.3, 9.8, 10.12, 10.12, 10.12, 10.43, 11.33, 10.43, 10.43, 11.52, 11.52, 12.27, 13.19, 13.56, 14.75, 14.61, 10.75, 6.8, 5.64, 5.64, 5.64, 6.6, 6.4, 6.4, 6.2, 5.15, 5.15, 5.31, 4.11, 4.11, 3.98, 3.98, 4.24, 4.38, 4.52, 4.52, 5.02, 4.87, 3.44, 3.82, 6.0, 6.6, 6.8, 5.31, 5.15, 4.98, 2.37, 1.93, -0.0, -0.0, -0.0, -0.0, -0.0, -0.0, -0.0, -0.0, -0.0, -0.0, -0.0, -0.0, 3.6, 3.8, 2.69, -0.0, -0.0, -0.0, -0.0, 9.6, 9.33, 11.2, 13.02, 15.9, 21.33, 17.7, 12.03, 11.88, 16.53, 20.8, 19.51, 12.18, 11.95, 11.2, 12.18, 12.39, 12.1, 11.2, 10.73, 9.88, 9.42, 9.08, 8.53, 8.53, 8.53, 8.85, 8.85, 9.17, 9.96, 10.3, 10.3, 10.65, 9.8, 9.8, 10.12, 10.12, 11.33, 11.33, 12.27, 12.27, 12.27, 12.27, 13.56, 14.18, 14.75, 15.05, 11.68, 8.06, 6.17, 5.64, 5.64, 6.6, 6.4, 6.2, 6.2, 4.98, 4.98, 4.98, 5.15, 5.31, 4.98, 3.85, 3.85, 3.85, 4.24, 5.63, 5.63, 6.0, 5.4, 4.58, 5.8, 6.4, 6.4, 4.98, 4.65, 4.48, 2.19, 1.84, -0.0, -0.0, -0.0, -0.0, -0.0, -0.0, -0.0, -0.0, -0.0, -0.0, -0.0, -0.0, 3.6, 3.8, 2.69, -0.0, -0.0, -0.0, -0.0, 6.64, 10.08, 11.09, 12.47, 13.91, 16.79, 17.82, 13.74, 12.98, 17.04, 20.96, 20.12, 12.87, 12.04, 8.85, 10.23, 10.94, 11.2, 10.81, 10.25, 8.53, 8.15, 7.85, 7.85, 7.85, 7.85, 8.85, 8.85, 9.96, 9.96, 10.3, 10.3, 10.65, 9.8, 10.12, 10.12, 10.99, 11.33, 11.33, 12.27, 12.27, 12.27, 13.19, 13.56, 14.18, 14.75, 15.08, 13.2, 9.89, 7.38, 6.8, 5.64, 5.48, 6.4, 6.2, 6.0, 4.98, 4.58, 4.58, 4.98, 4.98, 4.98, 4.81, 3.85, 3.85, 4.24, 5.45, 5.45, 5.8, 5.2, 5.0, 5.99, 6.65, 6.0, 4.24, 4.48, 4.15, 3.82, 1.75, 1.75, -0.0, -0.0, -0.0, -0.0, -0.0, -0.0, -0.0, -0.0, -0.0, -0.0, -0.0, -0.0, 3.8, 3.4, -0.0, -0.0, -0.0, -0.0, 9.39, 10.28, 10.73, 11.55, 12.72, 13.02, 13.71, 13.91, 14.22, 17.1, 20.71, 20.54, 12.96, 11.16, 5.8, 8.54, 9.69, 9.88, 10.55, 7.26, 6.94, 7.02, 6.7, 6.45, 6.45, 6.45, 9.5, 9.5, 10.55, 9.96, 9.96, 10.3, 10.3, 9.8, 10.12, 10.12, 10.99, 10.99, 12.27, 12.27, 12.27, 13.19, 13.19, 13.56, 14.18, 14.64, 14.64, 13.2, 9.89, 8.43, 7.38, 5.64, 5.48, 5.31, 5.15, 5.15, 4.58, 4.43, 4.43, 4.43, 4.81, 4.81, 4.81, 4.81, 4.98, 4.81, 5.27, 5.27, 5.27, 5.2, 5.0, 5.4, 6.43, 6.43, 5.8, 3.82, 4.15, 3.65, 1.75, 1.67, -0.0, -0.0, -0.0, -0.0, -0.0, -0.0, -0.0, -0.0, -0.0, -0.0, -0.0, -0.0, 5.69, 5.37, 3.6, -0.0, -0.0, -0.0, 6.32, 9.83, 10.52, 10.75, 11.44, 12.39, 11.57, 10.17, 11.55, 17.17, 20.22, 21.35, 13.89, 10.12, 1.9, 7.11, 8.44, 9.17, 7.24, 5.0, 4.32, 5.4, 5.2, 5.2, 5.2, 5.2, 10.19, 10.19, 10.55, 10.55, 10.91, 10.3, 10.3, 9.8, 9.8, 10.99, 10.99, 10.99, 12.27, 12.27, 12.27, 13.19, 13.56, 14.18, 14.18, 14.64, 14.31, 13.59, 11.54, 9.12, 7.38, 7.38, 5.48, 5.31, 5.15, 5.15, 4.58, 4.43, 4.43, 4.28, 4.28, 4.65, 4.65, 4.65, 4.81, 4.81, 5.27, 5.27, 5.27, 5.4, 5.0, 6.4, 7.28, 6.21, 6.21, 5.2, 3.98, 3.65, 3.32, 1.67, -0.0, -0.0, -0.0, -0.0, -0.0, -0.0, -0.0, -1.4, -1.1, -1.03, -0.0, -0.0, -0.0, -0.0, -0.0, 3.6, -0.0, 6.32, 6.64, 9.33, 9.6, 9.58, 10.48, 10.79, 10.02, 7.44, 8.68, 13.73, 18.8, 21.45, 16.09, 11.38, -2.28, 4.24, 4.81, 0.0, 0.0, 0.0, 2.19, 2.19, 4.15, 3.53, 3.53, 3.53, 10.19, 10.19, 10.55, 10.55, 10.55, 10.3, 10.65, 10.65, 9.8, 10.65, 10.99, 11.9, 12.42, 12.81, 12.81, 13.56, 13.56, 14.18, 14.18, 14.16, 14.19, 13.19, 11.54, 9.89, 9.12, 7.38, 5.48, 5.31, 5.15, 4.74, 4.58, 4.58, 4.43, 4.28, 4.28, 4.12, 4.48, 4.65, 4.65, 4.65, 5.08, 5.08, 5.08, 5.86, 5.92, 6.4, 6.63, 7.28, 5.99, 5.0, 4.8, 3.82, 3.49, 1.75, -0.0, -0.0, -0.0, -0.0, -0.0, -0.0, -0.0, -1.32, -1.23, -1.05, -0.96, -0.0, -0.0, -0.0, -0.0, -0.0, -0.0, -0.0, 4.2, 6.95, 7.27, 8.58, 9.08, 9.16, 8.54, 7.19, 7.69, 10.87, 14.65, 19.82, 19.28, 20.56, -11.7, -7.19, -8.85, -12.07, -6.7, -2.82, 0.0, 0.0, 2.19, 2.19, 2.19, 2.19, 10.19, 10.19, 10.55, 10.55, 10.55, 10.3, 10.65, 10.65, 10.65, 10.99, 10.99, 12.42, 12.81, 12.81, 13.56, 13.56, 14.18, 14.18, 14.6, 14.6, 14.64, 13.56, 12.37, 10.75, 9.12, 7.16, 5.48, 5.31, 5.15, 4.58, 4.58, 4.58, 4.43, 4.28, 4.28, 4.12, 4.48, 4.48, 5.4, 5.6, 6.08, 6.08, 6.08, 6.4, 6.16, 6.63, 6.87, 7.28, 6.76, 5.95, 4.6, 3.65, 3.65, 3.49, 1.67, -0.0, -0.0, -0.0, -0.0, -0.0, -0.0, -1.32, -1.14, -1.05, -1.19, -0.0, -0.0, -0.0, -0.0, -0.0, 2.83, -0.0, -0.0, 4.4, 5.7, 6.44, 6.98, 7.44, 6.63, 7.19, 7.11, 8.18, 9.87, 16.69, 22.41, 21.2, -10.82, -3.19, -0.0, -0.0, -11.62, -8.22, -2.71, 0.0, 0.0, 0.0, 0.0, 0.0, 10.19, 10.19, 10.55, 11.26, 11.26, 10.3, 10.65, 10.65, 10.65, 10.99, 10.99, 12.42, 12.81, 12.81, 13.56, 13.56, 14.18, 14.18, 14.6, 14.6, 14.6, 13.56, 12.37, 11.54, 9.6, 7.82, 7.16, 5.31, 5.15, 4.74, 4.58, 4.58, 4.43, 4.28, 4.28, 4.12, 5.4, 5.4, 5.4, 5.4, 5.86, 5.86, 5.86, 6.4, 6.4, 6.63, 6.87, 7.28, 6.76, 6.24, 5.7, 4.4, 3.65, 2.17, 2.06, -0.0, -0.0, -0.0, -0.0, -0.0, -0.0, -1.23, -1.14, -1.3, -1.19, -1.98, -0.0, -0.0, -0.0, -0.0, 2.69, 2.83, -0.0, -0.0, 3.25, 4.6, 5.52, 5.0, 6.7, 7.78, 7.79, 5.28, 7.58, 14.78, 25.6, -5.94, -9.8, -3.25, 1.33, 5.92, 5.0, -10.0, -7.9, -6.45, -6.2, -3.39, -3.39, -3.39, 10.19, 10.19, 10.87, 11.26, 11.26, 9.96, 10.3, 10.65, 10.65, 10.99, 11.9, 12.81, 12.81, 12.81, 13.56, 13.56, 14.18, 14.18, 14.6, 14.6, 14.6, 14.18, 12.0, 11.2, 10.43, 8.85, 7.16, 6.4, 5.15, 4.74, 4.58, 4.58, 4.43, 4.43, 5.18, 5.4, 5.4, 5.2, 5.2, 5.2, 5.4, 5.86, 5.86, 6.16, 6.4, 7.28, 7.54, 7.28, 7.02, 6.5, 5.7, 4.4, 5.06, 2.17, 2.06, -0.0, -0.0, -0.0, -0.0, -0.0, -1.4, -1.32, -1.23, -1.3, -1.3, -1.7, -2.12, -0.0, -0.0, -0.0, -0.0, 2.06, 2.28, -0.0, -0.0, -0.0, 3.98, 4.15, 5.98, 8.01, 9.17, 8.1, 10.73, 15.34, 22.58, 10.58, -10.3, -6.98, -2.49, 6.44, 7.9, 7.59, -10.18, -9.3, -8.93, -8.55, -8.55, -8.55, 10.87, 10.87, 10.87, 11.26, 11.26, 10.79, 10.3, 10.65, 10.65, 10.99, 11.9, 12.81, 12.81, 12.81, 13.56, 13.56, 14.18, 14.18, 14.6, 14.6, 14.6, 14.18, 12.0, 11.2, 11.2, 10.43, 8.58, 6.95, 6.2, 5.55, 5.55, 5.36, 5.36, 5.36, 5.6, 5.4, 5.4, 5.2, 5.2, 5.2, 5.2, 5.64, 5.64, 6.16, 6.16, 6.76, 7.02, 7.02, 7.02, 6.5, 5.95, 5.7, 5.06, 4.2, 2.17, 2.06, -0.0, -0.0, -0.0, -0.0, -1.73, -1.63, -1.52, -0.0, -0.0, -1.84, -3.2, -2.12, -2.26, -2.4, -0.0, -0.0, 4.71, 2.83, -0.0, -0.0, 2.49, 3.98, 5.75, 7.26, 8.53, 9.5, 12.14, 24.13, 23.01, 14.86, -12.01, -10.37, -7.59, -0.0, 7.59, 8.73, 10.73, -10.73, -9.75, -8.55, -8.55, -8.55, 10.87, 10.87, 10.87, 10.87, 11.26, 10.79, 10.3, 10.3, 10.65, 10.65, 11.9, 12.42, 12.81, 12.81, 13.56, 13.81, 14.18, 14.6, 14.6, 15.05, 14.6, 14.18, 12.0, 11.2, 11.8, 11.44, 10.12, 7.93, 6.2, 5.55, 5.55, 5.36, 5.36, 5.6, 5.6, 5.4, 5.4, 5.2, 5.2, 5.0, 5.2, 5.64, 4.72, 4.72, 5.0, 5.92, 6.76, 6.76, 6.76, 7.15, 5.95, 6.42, 4.4, 4.4, 2.28, 2.17, -0.0, -0.0, -0.0, -0.0, -0.0, -1.73, -1.63, -0.0, -0.0, -0.0, -1.98, -3.47, -5.37, -5.37, -5.69, -0.0, -0.0, 4.0, -0.0, -0.0, -0.0, 3.39, 5.95, 5.95, 7.15, 9.16, 15.27, 22.42, 21.09, 19.09, -16.48, -9.8, -5.6, -0.0, 5.52, 9.09, 9.58, 9.6, 0.0, 0.0, 0.0, 0.0, 10.87, 10.87, 10.87, 10.87, 10.87, 10.79, 10.3, 10.65, 10.65, 10.65, 11.53, 12.42, 12.81, 13.56, 13.56, 13.81, 14.31, 14.64, 14.6, 15.05, 15.05, 13.56, 12.81, 12.51, 12.13, 11.44, 10.77, 8.51, 7.13, 6.9, 6.9, 6.67, 6.67, 6.44, 6.44, 6.21, 6.21, 5.98, 5.98, 5.0, 5.0, 5.64, 5.64, 5.43, 5.43, 4.8, 4.8, 5.32, 5.32, 5.95, 5.95, 6.42, 5.9, 4.4, 4.4, 2.28, -0.0, -0.0, -0.0, -0.0, -0.0, -1.73, -1.63, -1.63, -0.0, -0.0, -0.0, -1.98, -3.2, -5.37, -5.69, -8.49, -0.0, -0.0, -0.0, -0.0, -0.0, 1.93, 4.8, 6.87, 7.15, 8.22, 14.3, 20.46, 20.55, 17.85, -15.18, -8.85, -0.0, 2.19, 7.9, 9.46, 10.4, 10.38, 10.73, 0.0, 0.0, 0.0, 10.87, 10.87, 10.87, 10.87, 10.87, 10.41, 10.79, 10.3, 10.3, 10.3, 11.53, 12.42, 12.42, 13.56, 13.56, 13.81, 14.31, 14.31, 14.64, 15.05, 14.61, 13.97, 13.59, 12.51, 12.5, 12.5, 10.77, 8.51, 7.13, 6.9, 6.67, 6.67, 6.44, 6.44, 6.44, 6.21, 6.21, 5.98, 5.75, 5.75, 5.0, 5.43, 5.43, 5.43, 5.21, 5.69, 4.8, 5.32, 5.1, 5.7, 5.7, 6.42, 5.29, 4.4, 4.4, 2.28, 2.28, -0.0, -0.0, -0.0, -0.0, -0.0, -1.73, -2.12, -0.0, -0.0, -0.0, -1.63, -1.98, -5.37, -5.69, -6.01, -0.0, -0.0, -0.0, -0.0, -2.97, -0.0, 4.6, 5.52, 6.7, 10.25, 13.02, 18.04, 22.88, 17.3, 13.02, -3.82, 2.02, 6.17, 10.0, 10.79, 10.79, 10.91, 10.73, 9.75, 9.75, 9.75, 10.87, 10.87, 11.5, 11.5, 11.26, 10.79, 10.79, 9.96, 10.3, 11.16, 11.53, 12.42, 13.15, 13.56, 13.56, 13.81, 14.31, 14.31, 14.31, 14.31, 14.23, 13.59, 13.59, 12.9, 12.5, 11.9, 10.77, 8.51, 7.69, 7.69, 7.43, 7.18, 6.44, 5.99, 5.78, 5.78, 5.78, 5.98, 5.98, 5.75, 6.2, 6.2, 5.43, 5.43, 5.69, 5.69, 5.69, 5.1, 5.1, 5.7, 5.7, 5.29, 5.29, 5.06, 4.4, 4.4, 2.28, 2.17, -0.0, -0.0, -0.0, -0.0, -0.0, -2.26, -2.26, -2.26, -2.26, -2.26, -3.0, -5.06, -5.37, -5.69, -5.69, -0.0, -0.0, -0.0, -2.97, -0.0, 3.25, 5.7, 7.9, 10.8, 12.93, 15.61, 21.12, 20.34, 14.56, 10.18, 6.95, 8.55, 9.96, 10.96, 11.35, 11.0, 10.65, 10.73, 10.73, 10.73, 11.5, 11.5, 11.5, 11.5, 11.6, 10.79, 10.79, 11.16, 11.16, 11.16, 11.53, 12.03, 13.15, 13.56, 13.56, 13.81, 13.81, 13.81, 13.81, 14.23, 14.23, 13.59, 13.89, 12.9, 12.5, 11.9, 9.8, 9.21, 7.69, 7.43, 7.43, 6.72, 6.72, 5.78, 5.78, 5.78, 5.57, 5.98, 5.98, 5.75, 6.2, 6.2, 6.2, 6.44, 6.44, 5.69, 6.24, 5.98, 5.1, 5.7, 5.7, 6.14, 5.29, 5.06, 5.06, 4.4, 4.2, 2.28, 2.17, -0.0, -0.0, -0.0, -0.0, -0.0, -2.26, -3.2, -3.2, -3.2, -3.2, -0.0, -7.6, -7.6, -5.69, -5.69, -0.0, -0.0, -0.0, -6.64, -0.0, 7.27, 7.9, 10.4, 12.58, 14.4, 19.08, 19.25, 15.19, 11.76, 9.04, 8.55, 10.08, 11.06, 11.18, 11.18, 10.73, 10.73, 10.73, 10.73, 11.5, 11.5, 11.5, 11.5, 11.6, 11.6, 10.79, 11.16, 11.16, 11.16, 11.53, 12.74, 13.15, 13.15, 13.56, 13.39, 13.39, 13.81, 13.81, 13.99, 13.89, 13.89, 13.89, 13.29, 11.9, 10.94, 10.36, 9.21, 8.38, 7.43, 6.96, 6.72, 6.72, 6.48, 6.48, 5.78, 5.78, 5.98, 5.98, 5.75, 6.2, 6.2, 6.44, 6.44, 6.44, 6.44, 6.69, 5.98, 5.98, 6.58, 5.7, 6.14, 6.14, 5.06, 5.06, 4.2, 4.2, 2.28, 2.28, -0.0, -0.0, -0.0, -0.0, -0.0, -0.0, -3.2, -6.4, -5.37, -5.37, 7.15, -7.15, -8.05, -8.05, -5.69, -6.01, -0.0, -0.0, -0.0, -0.0, 4.6, 7.59, 11.03, 12.08, 13.92, 17.68, 17.73, 15.19, 12.37, 10.63, 11.37, 11.6, 10.25, 11.18, 11.06, 11.06, 11.02, 11.02, 11.02, 11.5, 11.5, 11.5, 11.5, 11.5, 11.6, 11.6, 11.6, 11.99, 11.99, 12.74, 12.74, 13.15, 13.15, 13.39, 13.39, 13.39, 13.39, 13.99, 13.99, 13.48, 14.11, 14.11, 12.9, 11.29, 10.36, 9.8, 8.38, 8.38, 7.62, 6.96, 6.72, 6.48, 6.48, 6.48, 6.48, 6.92, 6.67, 6.67, 7.14, 6.86, 6.2, 6.71, 6.44, 6.44, 6.98, 6.69, 6.69, 5.98, 6.58, 6.3, 6.14, 6.14, 6.14, 5.06, 4.83, 4.2, 4.0, 2.28, 2.17, -0.0, -0.0, -0.0, -0.0, -0.0, -0.0, -5.37, -7.6, -8.05, 7.6, 7.15, 8.05, 7.6, 8.94, -8.05, -8.49, -8.94, -0.0, -0.0, -0.0, 7.27, 10.6, 11.88, 13.01, 16.03, 16.85, 14.26, 11.95, 10.47, 12.05, 12.97, 11.85, 10.28, 10.38, 9.58, 9.97, 9.97, 9.97, 12.04, 12.04, 12.46, 12.46, 11.92, 11.92, 11.92, 11.92, 11.92, 12.33, 12.33, 12.74, 13.39, 13.39, 13.39, 13.39, 13.57, 13.57, 13.57, 14.13, 14.13, 13.7, 13.7, 13.19, 11.29, 10.36, 9.8, 8.38, 8.38, 7.62, 6.96, 6.72, 6.48, 6.48, 6.92, 6.67, 6.67, 6.67, 7.14, 6.86, 6.86, 7.36, 7.36, 6.44, 6.98, 6.98, 6.98, 6.69, 6.69, 6.58, 6.3, 6.95, 6.14, 6.14, 5.86, 5.63, 5.63, 4.0, 4.0, 2.83, 2.83, -0.0, -0.0, -0.0, -0.0, -0.0, -0.0, -8.05, -8.05, 7.6, 7.15, 6.71, 5.81, 8.49, -7.6, -8.05, -8.49, -0.0, -0.0, -0.0, 7.27, 10.52, 11.35, 11.96, 13.75, 15.43, 13.76, 11.87, 11.52, 12.52, 13.15, 13.51, 9.7, 11.18, 5.0, 5.2, 5.2, 5.2, 12.04, 12.04, 12.46, 12.46, 11.92, 11.92, 11.92, 11.92, 11.92, 12.33, 12.33, 12.74, 13.39, 13.39, 13.39, 13.39, 13.57, 13.57, 13.57, 14.13, 14.13, 13.7, 13.7, 13.19, 11.29, 10.36, 9.8, 8.38, 8.38, 7.62, 6.96, 6.72, 6.48, 6.48, 6.92, 6.67, 6.67, 6.67, 7.14, 6.86, 6.86, 7.36, 7.36, 6.44, 6.98, 6.98, 6.98, 6.69, 6.69, 6.58, 6.3, 6.95, 6.14, 6.14, 5.86, 5.63, 5.63, 4.0, 4.0, 2.83, 2.83, -0.0, -0.0, -0.0, -0.0, -0.0, -0.0, -8.05, -8.05, 7.6, 7.15, 6.71, 5.81, 8.49, -7.6, -8.05, 8.94, -0.0, -0.0, -0.0, 7.27, 9.6, 10.75, 11.34, 11.6, 12.72, 13.15, 11.82, 11.82, 12.14, 13.51, 14.13, 12.52, 9.58, 0.0, 2.82, 2.82, 2.82]}, {"header": {"dx": 0.06612293990616946, "dy": 0.0552356325346848, "nx": 98, "ny": 59, "la1": 35.046912555036876, "la2": 31.78801023549047, "lo1": -121.43107172385933, "lo2": -114.95102361305473, "refTime": "2026041106", "parameterCategory": 1, "parameterNumber": 3}, "data": [14.75, 14.75, 14.47, 13.99, 13.99, 13.99, 14.75, 14.75, 14.55, 14.55, 13.72, 11.46, 11.87, 10.0, 9.75, 10.18, 10.18, 10.41, 10.18, 10.41, 10.84, 11.03, 10.18, 0.0, 0.0, 0.0, 0.0, 10.73, 11.18, 9.3, 6.2, 2.71, -0.0, -2.49, -4.02, -5.6, -7.15, -6.4, -6.32, 0.0, 8.33, 9.83, 11.62, 10.79, 10.12, 6.16, 6.12, 6.59, 7.22, 7.98, 7.19, 8.1, 9.17, 8.85, 9.17, 8.1, 7.79, 6.9, 6.76, 6.0, 4.98, 4.24, 3.14, 0.0, 0.0, 1.9, 4.38, 5.73, 5.81, 5.96, 5.21, 4.05, 0.0, 0.0, 0.0, 0.0, 0.0, 0.0, -0.92, -1.55, -10.28, -8.8, -9.33, -8.85, -9.39, -9.33, -8.6, -7.6, -6.63, -6.11, -6.67, -7.1, -7.36, -7.51, -6.56, -5.6, -2.42, 0.0, 14.3, 14.75, 14.75, 14.55, 13.99, 13.7, 14.9, 15.2, 14.55, 14.6, 13.28, 12.71, 11.28, 10.73, 11.62, 11.18, 10.28, 11.62, 10.73, 10.08, 11.71, 11.84, 11.84, 11.03, 10.73, -0.0, -7.27, -0.0, -0.0, 2.71, 2.82, -0.0, -2.82, -2.8, -3.47, -5.95, -8.05, -6.7, -3.8, 2.17, 9.33, 11.4, 11.6, 8.58, 6.14, 2.53, 2.78, 5.16, 5.37, 6.0, 6.67, 6.67, 7.78, 7.51, 8.85, 9.17, 7.44, 6.51, 6.0, 5.62, 5.55, 5.11, 4.1, 0.0, 0.0, 0.0, 3.68, 5.73, 5.99, 6.13, 5.72, 5.65, 1.58, -4.1, -5.11, -2.81, -1.04, 0.0, -0.92, -1.55, -10.28, -8.8, -9.33, -8.85, -9.39, -9.33, -8.6, -7.6, -6.63, -6.11, -6.67, -7.1, -7.36, -7.51, -6.56, -5.6, -2.42, 0.0, 14.3, 14.75, 14.75, 14.47, 14.55, 13.99, 14.99, 15.2, 15.2, 14.16, 12.39, 10.18, 11.28, 11.62, 10.73, 10.73, 11.18, 11.18, 11.18, 12.52, 11.18, 11.28, 11.4, 11.45, 12.14, 10.28, -6.95, -6.95, -3.11, 2.6, 2.93, -0.0, -0.0, -0.0, -0.0, -6.01, -8.05, -6.32, -4.2, 5.7, 11.03, 12.39, 11.38, 8.0, 3.86, 0.0, 0.0, 0.0, 2.63, 2.54, 2.54, 3.25, 4.1, 5.6, 8.85, 7.44, 6.9, 6.0, 5.55, 6.0, 6.42, 6.43, 7.19, 5.8, 0.0, 0.0, 4.1, 5.15, 6.37, 6.45, 6.72, 6.9, 3.79, -6.9, -11.12, -7.28, -3.6, -0.95, -1.83, -2.63, -10.28, -8.8, -8.48, -8.6, -8.89, -8.94, -7.81, -8.06, -7.44, -7.9, -9.32, -9.62, -9.02, -8.59, -6.7, 0.0, 3.11, 3.7, 14.3, 14.3, 14.75, 14.75, 14.55, 13.99, 14.42, 14.99, 14.75, 13.72, 11.95, 10.62, 11.71, 11.18, 11.18, 11.18, 11.62, 12.07, 12.07, 11.18, 11.18, 10.73, 10.6, 10.4, 9.2, 10.6, 10.28, -4.4, -0.0, 5.7, 7.9, 9.3, 10.4, 10.41, 9.39, 8.91, 4.4, 0.0, 0.0, 11.99, 14.94, 16.1, 11.53, 6.81, 3.42, 0.0, 0.0, 0.0, 0.0, 0.0, 0.0, 0.0, 0.0, 5.6, 8.85, 4.1, 4.81, 3.68, 5.45, 6.0, 6.67, 8.44, 8.85, 8.85, 7.19, 3.14, 4.81, 5.45, 7.73, 8.29, 8.86, 9.31, 9.0, 2.35, -12.07, -11.71, -7.85, -4.58, -2.57, -6.0, -9.54, -7.87, -8.48, -7.81, -7.4, -8.85, -8.94, -8.17, -8.99, -10.73, -11.06, -10.43, -9.48, -6.45, 4.8, 7.68, 6.01, 3.14, 14.3, 14.3, 14.75, 14.75, 14.75, 14.55, 14.42, 14.99, 14.75, 13.86, 11.95, 10.62, 11.28, 11.18, 10.73, 11.62, 11.62, 12.07, 12.07, 12.07, 12.52, 11.18, 10.73, 10.4, 10.41, 11.18, 11.18, 11.18, 11.18, 9.13, 8.82, 8.55, 9.46, 10.88, 11.18, 10.38, 8.94, 7.78, 11.06, 17.78, 18.96, 15.59, 11.68, 9.48, 7.78, 6.7, 3.82, 0.0, 0.0, 0.0, 0.0, 0.0, 0.0, 5.6, 5.6, 4.1, 3.14, 4.24, 4.71, 6.0, 8.44, 9.76, 9.88, 10.79, 10.18, 8.59, 8.05, 8.05, 8.83, 10.27, 11.19, 12.31, 12.74, 12.22, 0.0, -11.18, -11.28, -6.76, -2.81, -13.15, -8.43, -8.05, -7.28, -7.07, -6.18, -7.81, -8.94, -9.75, -11.77, -12.52, -11.25, -10.3, -7.24, 8.93, 8.91, 7.33, 4.44, 2.97, 14.3, 14.3, 14.3, 14.75, 14.75, 14.55, 14.99, 14.55, 14.75, 13.86, 11.95, 9.75, 10.84, 10.73, 11.18, 11.18, 11.62, 12.07, 12.07, 12.52, 12.52, 12.07, 13.41, 12.96, 12.07, 11.91, 11.62, 11.18, 11.18, 11.18, 9.11, 7.51, 6.14, 8.53, 13.15, 12.72, 10.79, 8.87, 12.33, 18.78, 15.78, 14.03, 11.2, 10.61, 10.61, 10.19, 10.41, 8.85, 6.94, 6.94, 6.7, 6.94, 6.94, 8.85, 4.1, 4.1, 3.14, 2.54, 4.24, 7.44, 9.96, 11.2, 11.41, 12.03, 11.8, 11.07, 9.8, 9.17, 10.47, 9.27, 8.99, 9.8, 10.73, 11.14, 9.66, -3.79, -10.73, -9.96, -7.27, -11.45, -6.64, -6.87, -6.01, -6.52, -7.2, -8.56, -11.18, -13.67, -14.21, -12.94, -11.72, -10.01, 10.4, 8.94, 8.72, 5.86, 2.49, 1.23, 14.3, 13.88, 13.88, 14.75, 14.75, 14.75, 14.55, 14.55, 14.11, 13.86, 12.07, 9.74, 10.41, 10.73, 12.07, 11.18, 12.07, 12.52, 12.52, 12.52, 11.6, 12.79, 14.47, 15.65, 15.2, 14.31, 14.11, 14.3, 12.71, 10.52, 10.73, 9.11, 8.8, 8.43, 11.28, 13.86, 11.44, 9.8, 9.8, 13.41, 13.57, 12.96, 11.99, 11.5, 11.52, 10.37, 10.01, 9.5, 10.04, 9.77, 10.41, 9.27, 8.85, 7.51, 3.96, 0.0, 0.0, 0.0, 0.0, 7.19, 11.5, 11.71, 12.87, 12.79, 12.27, 11.25, 10.58, 10.3, 9.48, 6.2, 5.14, 5.64, 5.36, 5.65, 6.16, 4.38, -2.89, -10.28, -9.83, -9.83, -6.98, -8.0, -8.37, -8.72, -9.96, -12.03, -14.26, -15.25, -14.6, -12.87, -12.27, 8.85, 8.33, 8.49, 6.32, 2.83, 1.23, 0.0, 13.44, 13.88, 13.88, 14.03, 14.75, 14.75, 14.55, 14.55, 14.11, 13.41, 11.18, 9.83, 10.28, 11.18, 12.52, 11.18, 12.07, 12.96, 12.96, 13.41, 0.0, -0.0, 6.0, 14.84, 14.75, 12.65, 11.06, 16.09, 13.99, 12.72, 11.71, 11.71, 12.27, 12.52, 11.18, 12.52, 5.8, 4.15, 5.2, 8.22, 12.96, 13.86, 11.38, 12.01, 11.38, 10.12, 9.16, 9.16, 10.24, 11.26, 9.46, 9.16, 8.85, 6.94, 5.6, 0.0, 0.0, -3.82, 0.0, 11.45, 11.57, 12.93, 13.32, 13.11, 12.51, 12.26, 10.81, 8.78, 5.46, 0.0, 0.0, 0.0, 0.0, -0.98, -1.0, 0.0, 0.0, 0.0, 0.0, -6.4, -15.65, -10.8, -9.77, -10.92, -11.93, -13.41, -14.16, -14.55, -13.53, -12.07, 5.0, 6.8, 7.45, 8.33, 4.37, 2.39, 1.28, 0.0, 13.44, 13.88, 13.88, 14.03, 14.47, 14.75, 14.75, 14.55, 14.03, 12.71, 11.46, 11.62, 12.96, 12.96, 12.52, 12.52, 12.96, 13.41, 13.41, 13.41, 13.41, 13.41, 13.86, 14.3, 12.3, 7.9, 3.11, 9.8, 15.65, 14.3, 11.53, 10.75, 13.59, 13.86, 8.85, 0.0, 0.0, 0.0, 0.0, 5.7, 11.6, 14.75, 10.43, 5.6, 6.45, 7.9, 10.01, 11.99, 10.61, 10.01, 10.3, 7.73, 6.7, 5.4, 5.4, 3.68, 0.0, -8.22, 0.0, 11.62, 11.62, 13.37, 12.63, 12.74, 12.27, 12.26, 11.29, 8.72, 5.5, -1.25, -4.38, -4.51, -4.81, -4.4, -4.52, -4.52, -2.54, -1.33, -1.96, 0.0, 11.7, -13.28, -10.32, -11.35, -11.57, -12.07, -12.9, -12.79, -10.73, 0.0, 8.67, 7.81, 6.71, 7.2, 4.83, 2.23, 0.0, 0.0, 13.44, 12.39, 12.79, 14.03, 14.55, 14.75, 14.75, 14.75, 14.11, 12.71, 12.27, 12.71, 12.07, 13.41, 13.86, 13.41, 14.3, 14.75, 14.75, 13.41, 12.3, 12.3, 13.86, 14.3, 14.3, 11.62, 8.4, 7.59, 14.75, 14.3, 13.19, -0.0, -0.0, 0.0, 0.0, 7.9, 0.0, 0.0, 0.0, 5.8, 9.17, 9.17, 5.2, 0.0, 2.49, 6.71, 9.08, 8.53, 9.17, 8.3, 8.01, 7.73, 7.26, 5.2, 0.0, 0.0, -8.22, -11.62, 10.4, 11.55, 12.96, 14.3, 14.47, 12.79, 11.9, 11.2, 10.05, 8.83, 5.55, -1.17, -7.43, -8.05, -7.5, -7.73, -6.78, -6.21, -6.16, -5.2, -2.37, 6.8, 15.59, 13.76, -13.41, -10.73, -10.28, -9.54, -8.55, -2.49, 0.0, 6.32, 7.81, 8.49, 7.15, 6.64, 3.39, 1.23, 0.0, 0.0, 12.39, 12.39, 12.79, 13.7, 14.55, 14.55, 14.55, 14.75, 14.3, 13.23, 12.71, 13.86, 13.86, 13.86, 14.3, 14.3, 14.84, 15.18, 13.99, 12.01, 12.33, 14.51, 16.48, 14.31, 13.99, 12.96, 10.28, 9.2, 12.96, 13.86, 12.96, 9.17, -0.0, -0.0, -0.0, 12.07, 10.4, 8.22, 5.4, 7.69, 10.12, 6.0, 3.68, 0.0, 0.0, 4.6, 6.44, 7.9, 5.0, 6.98, 9.46, 10.55, 11.03, 11.3, 10.04, -12.52, -12.58, -3.82, 10.35, 11.4, 13.81, 14.75, 14.03, 12.9, 11.52, 10.22, 10.47, 11.13, 10.11, 6.3, -3.04, -11.6, -11.57, -9.57, -8.66, -8.31, -9.17, -12.07, 0.0, 13.41, 14.75, 13.8, 10.75, 0.0, 0.0, 0.0, 0.0, 1.33, 2.39, 5.1, 7.6, 9.97, 7.07, 5.95, 0.0, 0.0, 0.0, 0.0, 12.87, 12.87, 13.28, 13.7, 14.55, 14.55, 14.55, 14.6, 14.3, 13.41, 13.41, 13.86, 14.75, 14.3, 13.15, 11.2, 11.2, 13.19, 11.38, 7.6, 7.4, 8.93, 13.99, 16.09, 12.72, 12.3, 11.87, 8.05, 11.18, 10.28, 10.73, 11.62, 11.62, 6.95, -0.0, 0.0, 7.27, 8.53, 11.2, 9.48, 9.8, 9.48, 3.82, 0.0, 4.6, 7.51, 8.93, 10.18, 10.18, 10.96, 11.88, 12.68, 13.18, 13.62, 13.23, 13.86, -0.0, -0.0, 8.85, 11.45, 14.3, 14.22, 13.99, 12.65, 12.0, 12.65, 14.42, 15.99, 17.09, 16.14, 13.81, 0.0, -12.96, -11.92, -9.96, -11.16, -0.0, -0.0, -0.0, 13.41, 13.86, 11.99, 8.85, 7.59, 5.6, 5.11, 2.52, 1.09, 1.16, 4.0, 8.8, 10.73, 4.6, 0.0, -1.76, -2.52, -1.45, 0.0, 11.88, 11.88, 13.28, 13.7, 13.99, 13.99, 14.55, 14.16, 14.16, 13.72, 13.86, 14.3, 14.75, 14.9, 15.34, 13.59, 12.79, 11.99, 9.17, 8.05, 4.98, 6.0, 11.16, 13.41, 13.15, 11.5, 9.48, 9.48, 8.53, 8.18, 10.41, 11.03, 11.62, 11.18, 7.27, 0.0, 0.0, 11.18, 10.4, 8.53, 8.85, 8.85, 8.53, 9.2, 9.83, 9.83, 10.28, 10.73, 11.18, 11.18, 10.69, 11.14, 12.07, 12.49, 14.26, 14.23, 13.48, 13.58, 11.62, 11.03, 13.86, 13.01, 12.87, 11.99, 13.53, 14.14, 15.12, 18.96, 19.8, 19.75, 17.35, 14.7, -10.75, -11.2, -12.07, -12.52, 12.39, 14.3, 11.99, 8.85, 10.4, 8.22, 5.6, 6.0, 7.78, 7.36, 4.52, 2.24, 1.33, 4.4, 0.0, -9.2, -9.6, -7.59, -5.52, -4.75, -3.82, 0.0, 11.88, 11.88, 11.88, 13.57, 13.99, 13.57, 13.75, 14.16, 14.16, 14.16, 14.16, 14.11, 14.55, 14.9, 14.94, 14.94, 14.39, 13.59, 13.19, 8.58, 5.31, 5.31, 13.19, 15.65, 15.65, 14.53, 12.27, 11.17, 9.8, 10.37, 10.4, 11.03, 12.07, 10.73, 10.28, 6.95, 9.39, 10.28, 10.28, 9.6, 10.4, 10.6, 10.0, 10.6, 9.83, 9.83, 8.49, 9.83, 10.73, 10.73, 10.73, 10.73, 13.23, 13.59, 12.52, 11.35, 10.8, 12.07, 12.79, 11.18, 12.47, 13.31, 13.31, 13.31, 12.52, 12.07, 12.94, 13.86, 14.31, 12.52, 12.72, 12.45, 11.88, -8.22, -8.93, 14.75, 15.65, 14.11, 12.27, 10.43, 9.48, 8.01, 5.08, 4.52, 6.21, 5.55, 4.52, 4.08, 4.15, 3.25, 0.0, -9.97, -10.28, -9.6, -8.38, -6.97, -3.25, 4.8, 12.39, 12.39, 12.39, 12.79, 12.79, 13.75, 13.75, 13.75, 13.75, 13.75, 13.75, 14.18, 13.99, 14.42, 15.27, 14.18, 15.36, 14.79, 14.39, 9.39, 5.64, 9.12, 12.52, 15.61, 16.09, 15.69, 14.39, 12.52, 10.75, 10.43, 11.53, 12.14, 12.07, 10.73, 10.28, 9.83, 10.28, 9.39, 11.18, 9.2, 9.6, 11.62, 9.6, 10.18, 9.39, 8.94, 8.94, 8.94, 8.94, 9.83, 10.28, 10.28, 9.33, -0.0, 0.0, 8.94, 9.33, 9.2, 10.53, 11.72, 11.18, 11.62, 12.07, 12.07, 12.07, 12.0, 12.01, 11.55, 9.32, 9.88, 11.2, 12.11, 9.56, 0.0, -9.8, 14.84, 16.09, 14.53, 12.82, 12.11, 10.22, 8.31, 6.56, 5.0, 1.28, 0.0, 3.25, 4.33, 5.2, 5.0, 3.98, -10.28, -9.97, -10.28, -8.55, 0.0, 10.0, 10.0, 12.39, 12.39, 12.39, 12.79, 13.15, 13.15, 13.75, 13.88, 13.75, 13.75, 14.18, 14.18, 14.18, 14.61, 13.99, 14.39, 14.18, 14.57, 13.59, 11.7, 7.2, 9.66, 12.87, 14.79, 16.54, 16.54, 14.79, 13.39, 9.39, 6.8, 10.75, 15.2, 13.86, 11.62, 9.75, 8.67, 9.83, 9.83, 11.18, 10.73, 10.28, 10.18, 9.6, 9.33, 9.39, 8.49, 8.49, 8.49, 8.49, 8.49, 8.94, 8.94, 8.94, 0.0, 0.0, 0.0, 8.49, 9.33, 9.08, 10.4, 10.14, 10.73, 10.73, 10.73, 10.28, 10.18, 9.29, 10.58, 10.46, 11.6, 11.54, 11.7, 10.7, 5.06, 3.47, 15.2, 15.57, 13.03, 11.3, 10.52, 10.4, 8.93, 7.59, 5.8, 3.67, 0.0, -2.02, 1.45, 3.39, 4.36, 4.8, -6.95, -7.27, 0.0, 2.49, 5.95, 9.3, 9.3, 12.39, 12.39, 12.79, 12.39, 12.74, 13.15, 13.39, 14.31, 13.88, 13.88, 14.31, 14.18, 13.97, 13.97, 14.38, 13.99, 13.99, 14.18, 14.57, 12.01, 9.17, 8.93, 12.87, 12.87, 14.39, 0.0, 0.0, 7.2, 3.9, 4.01, 14.13, 16.99, 15.78, 13.57, 8.3, 8.77, 9.39, 10.73, 10.28, 10.28, 10.73, 8.94, 9.83, 8.06, 9.39, 8.94, 8.94, 8.49, 8.06, 8.0, 8.0, 8.4, 8.4, 6.64, 6.64, 6.64, 8.8, 7.27, 6.2, 8.22, 10.0, 9.2, 9.33, 9.83, 9.33, 7.6, 8.48, 8.67, 10.28, 10.21, 9.8, 7.84, 6.94, 5.46, 6.4, 14.11, 13.59, 11.06, 9.66, 8.43, 7.97, 7.36, 6.24, 5.55, 5.11, 4.18, -5.46, 0.0, 3.39, 4.36, 3.95, 3.87, 4.4, 3.98, 5.0, 6.44, 7.9, 7.9, 12.39, 12.39, 12.79, 12.79, 12.03, 12.74, 13.39, 13.88, 14.31, 14.31, 14.31, 14.23, 14.23, 14.23, 13.97, 13.97, 13.99, 14.39, 12.92, 11.7, 5.09, 11.38, 12.52, 12.16, 11.06, 0.0, 0.0, 0.0, 0.0, 9.67, 16.91, 17.88, 16.96, 14.39, 11.2, 7.89, 8.77, 10.28, 10.73, 10.28, 9.83, 9.39, 8.49, 8.49, 8.94, 9.39, 8.94, 8.94, 8.4, 8.4, 6.64, 6.95, 6.95, 6.95, 6.95, 6.95, 6.95, 7.27, 8.93, 7.9, 7.9, 7.59, 7.27, 9.83, 8.91, 8.06, 6.7, 7.07, 6.95, 3.53, 3.07, 3.93, 3.95, 3.96, 8.11, 13.8, 11.58, 9.12, 7.53, 5.81, 4.34, 3.93, 2.9, 3.23, 3.82, 4.6, 3.25, 3.25, 2.6, 3.68, 5.43, 5.06, 4.4, 4.8, 6.45, 7.9, 7.9, 7.9, 12.39, 12.39, 12.39, 12.42, 12.03, 12.03, 13.39, 13.96, 14.4, 14.4, 13.81, 14.23, 14.65, 14.65, 14.23, 15.19, 13.56, 13.58, 12.22, 12.16, 11.06, 15.27, 13.99, 14.79, 12.65, 14.79, 9.8, 7.6, 7.8, 14.39, 17.2, 17.88, 17.19, 14.51, 13.02, 11.2, 9.33, 8.72, 9.33, 11.18, 10.28, 10.28, 0.0, 9.83, 6.95, 9.83, 9.83, 9.39, 6.64, 8.4, 6.95, 6.95, 6.95, 6.95, 8.18, 8.55, 8.18, 8.93, 7.9, 7.9, 5.95, 5.95, 7.27, 8.94, 7.44, 6.79, 6.79, 6.32, -9.83, -8.53, -1.53, 0.81, 3.16, 3.97, 6.1, 6.72, 4.5, 2.8, 3.22, 2.57, 0.0, -1.1, -1.15, 0.0, 0.0, 1.28, 2.95, 3.92, 3.53, 3.98, 5.54, 4.25, 2.95, 5.0, 9.42, 8.22, 7.56, 7.56, 12.74, 12.74, 12.03, 12.03, 12.03, 12.03, 13.39, 13.96, 14.4, 14.4, 13.99, 14.23, 14.65, 13.99, 13.99, 13.2, 12.81, 13.56, 13.42, 12.16, 14.13, 14.39, 14.94, 15.59, 13.23, 13.23, 11.7, 11.38, 14.57, 16.33, 16.91, 17.43, 17.26, 14.51, 14.13, 13.59, 12.3, 10.79, 8.55, 7.6, 8.94, 0.0, 0.0, 6.64, 6.32, 7.59, 6.95, 9.83, 9.39, 6.64, 4.2, 4.2, 6.64, 6.64, 8.48, 7.81, 7.59, 6.95, 5.7, 5.95, 3.25, 3.25, 6.95, 9.83, 7.6, 6.01, 6.32, 8.91, 4.6, -2.28, 0.0, 1.6, 3.34, 3.29, 1.7, -2.25, -7.2, -7.42, -1.83, 0.0, -1.17, -3.69, -4.24, -3.25, -1.71, 0.0, 3.25, 5.7, 5.54, 4.8, 1.76, 1.05, 1.16, 4.32, 8.53, 7.73, 6.16, 6.16, 12.03, 12.03, 12.03, 12.03, 12.03, 12.03, 12.98, 13.96, 14.4, 14.84, 13.99, 14.23, 13.99, 13.99, 13.99, 13.99, 12.81, 12.81, 11.6, 12.16, 13.59, 11.7, 13.23, 13.8, 13.26, 12.01, 10.3, 13.05, 16.02, 17.35, 17.35, 17.3, 17.3, 16.02, 14.13, 14.79, 13.99, 12.71, 11.62, 10.28, 9.39, 9.83, 6.95, 6.95, 8.4, 7.59, 6.95, 6.95, 9.39, 6.64, 6.32, 4.0, 6.32, 7.81, 8.18, 6.32, 5.7, 5.7, 3.39, 4.4, 0.0, 0.0, 9.83, 9.33, 7.44, 7.44, 7.81, 9.83, 10.18, 7.26, 5.8, 5.51, 6.54, 3.53, -2.33, -9.12, -13.36, -12.52, -10.19, -4.95, -2.38, -1.42, -1.68, -2.35, 0.0, 0.0, 3.98, 4.4, 2.95, 3.82, 0.0, 0.0, 1.55, 5.98, 7.24, 5.4, 5.2, 5.2, 12.03, 12.03, 12.03, 12.03, 12.03, 12.03, 12.98, 13.57, 14.4, 14.84, 14.42, 14.23, 13.59, 13.99, 13.99, 13.27, 13.2, 12.27, 11.52, 10.33, 10.61, 10.33, 12.57, 12.57, 12.01, 12.64, 12.33, 14.36, 15.49, 16.48, 16.76, 17.26, 17.43, 16.91, 15.61, 15.19, 15.43, 13.86, 12.52, 11.18, 10.28, 9.83, 8.91, 8.91, 7.44, 5.69, 7.27, 6.95, 9.39, 8.94, 6.01, 7.6, 7.07, 7.44, 6.32, 6.95, 8.18, 8.93, 8.93, 0.0, 0.0, 0.0, 8.4, 8.91, 9.11, 9.11, 9.11, 9.54, 10.28, 11.4, 11.5, 11.52, 13.13, 11.16, -11.61, -14.07, -16.6, -16.79, -15.59, -12.22, -4.81, 0.0, 0.0, 0.0, 0.0, 0.0, 2.02, 0.0, 0.0, 1.7, 1.01, 1.5, 4.93, 5.4, 4.32, 3.68, 3.68, 3.68, 12.03, 12.03, 12.03, 12.03, 12.03, 12.03, 12.79, 13.57, 14.4, 14.84, 14.84, 14.23, 13.99, 13.99, 13.27, 13.27, 12.37, 12.0, 10.75, 10.33, 10.61, 10.05, 11.87, 11.87, 11.7, 13.39, 14.88, 15.14, 15.61, 14.79, 15.9, 16.37, 16.54, 16.05, 15.2, 15.69, 15.87, 14.75, 12.71, 11.4, 10.41, 9.97, 9.33, 8.48, 6.7, 6.32, 6.95, 9.39, 8.94, 8.49, 7.2, 7.6, 6.01, 6.01, 6.32, 6.32, 8.91, 9.55, 10.18, 8.94, -0.0, 4.0, 8.91, 8.67, 8.3, 9.26, 9.39, 9.39, 10.28, 10.28, 11.28, 12.39, 11.26, 8.43, -5.75, -9.46, -14.03, -16.17, -17.1, -16.99, -13.2, -4.52, 0.0, 1.72, 2.28, 0.0, 0.0, -1.76, 0.0, 3.82, 3.6, 4.9, 5.4, 4.75, 3.68, 3.68, 3.68, 3.68, 12.03, 12.03, 12.03, 12.03, 12.03, 12.03, 12.39, 13.39, 14.4, 14.84, 14.75, 14.65, 13.99, 13.27, 13.27, 13.27, 12.73, 12.0, 12.02, 11.38, 10.33, 12.01, 12.57, 12.27, 11.68, 13.76, 14.51, 16.02, 16.02, 15.19, 15.27, 16.09, 15.97, 15.61, 15.47, 15.27, 15.87, 15.2, 13.15, 11.28, 9.97, 9.54, 9.75, 9.75, 7.44, 6.32, 6.95, 6.64, 6.32, 8.0, 6.32, 6.01, 3.8, 6.01, 6.01, 6.01, 8.05, 8.94, 10.28, 9.97, 8.49, 6.01, 7.6, 8.67, 8.3, 9.26, 9.83, 10.73, 9.83, 9.83, 7.27, 0.0, 5.64, 8.02, 6.97, -12.27, -12.52, -12.39, -14.75, -15.65, -16.01, -11.17, -4.38, -1.66, -1.83, -1.91, -1.76, 0.0, 7.24, 10.41, 7.24, 7.14, 6.48, 5.4, 4.58, 3.68, 3.68, 3.68, 12.03, 12.03, 12.03, 12.03, 12.03, 12.03, 12.39, 13.39, 14.4, 14.84, 14.75, 14.23, 13.99, 13.27, 13.27, 13.27, 13.27, 12.37, 11.68, 11.38, 11.38, 12.01, 14.13, 13.76, 12.02, 13.02, 15.19, 16.02, 16.02, 15.61, 16.33, 16.54, 15.53, 15.04, 15.27, 15.27, 15.78, 15.65, 13.88, 11.71, 9.75, 9.33, 9.33, 9.75, 9.33, 6.64, 5.69, 7.07, 4.96, 5.21, 4.0, 4.6, 3.8, 3.6, 3.8, 7.6, 8.49, 7.37, 8.94, 9.54, 6.95, 6.01, 8.94, 9.11, 9.21, 9.21, 10.28, 10.28, 10.28, -0.0, -10.6, -3.14, 3.3, 10.73, 10.34, 3.77, -17.97, -16.99, -14.75, -12.01, -14.75, -14.75, -11.87, -8.43, -6.0, -4.15, 0.0, 10.4, 11.62, 11.87, 11.38, 8.6, 7.63, 6.72, 5.2, 4.4, 3.53, 3.53, 12.03, 12.03, 12.03, 12.03, 12.03, 12.03, 12.03, 13.39, 14.4, 14.66, 14.75, 14.23, 13.99, 13.99, 13.27, 13.27, 13.27, 12.73, 11.06, 10.02, 11.06, 11.38, 14.13, 13.05, 12.71, 13.39, 14.39, 15.61, 16.02, 16.32, 16.48, 16.88, 16.54, 16.37, 15.27, 14.94, 15.61, 16.09, 14.84, 12.72, 10.6, 9.75, 9.33, 9.33, 9.2, 7.27, 6.95, 4.71, 4.96, 2.28, 0.0, 0.0, 0.0, 0.0, 3.8, 7.6, 8.05, 7.63, 6.7, 8.94, 6.95, 7.27, 7.44, 9.39, 9.39, 9.39, 10.28, 10.41, 9.75, -0.0, -10.73, -3.14, 2.89, 8.68, 14.43, 12.82, 0.0, -18.41, -16.09, -12.52, -13.33, -15.2, -13.97, -11.17, -7.24, 0.0, 10.8, 11.21, 11.87, 11.72, 11.33, 8.9, 8.29, 6.67, 5.3, 5.0, 5.0, 5.0, 12.03, 12.03, 12.03, 12.03, 12.03, 11.53, 11.28, 12.03, 13.96, 14.4, 14.75, 14.23, 13.99, 13.2, 13.27, 13.27, 13.27, 11.88, 11.06, 11.06, 11.06, 11.06, 12.36, 12.71, 13.76, 14.79, 15.47, 16.05, 16.48, 16.48, 16.58, 16.58, 16.88, 16.88, 16.54, 16.54, 16.54, 16.54, 16.54, 15.65, 13.86, 11.45, 10.18, 9.33, 9.2, 7.27, 4.6, 4.2, 0.0, 0.0, 0.0, 0.0, 0.0, 0.0, 2.54, 6.32, 8.05, 7.21, 5.06, 5.37, 9.39, 7.81, 8.93, 8.48, 9.83, 9.39, 10.73, 10.28, 6.95, 0.0, -11.18, -6.45, 0.0, 5.49, 10.12, 14.89, 12.37, -17.39, -14.39, -11.62, -12.52, -14.75, -14.3, -12.96, 0.0, 10.8, 11.6, 11.26, 10.87, 11.5, 10.19, 8.61, 7.79, 7.13, 6.67, 5.77, 5.3, 5.3, 12.03, 12.03, 12.03, 12.03, 11.53, 11.53, 10.65, 12.03, 13.39, 13.96, 14.31, 14.23, 13.59, 13.2, 12.37, 12.89, 13.27, 11.88, 11.06, 11.06, 11.06, 11.06, 12.02, 12.02, 13.39, 14.79, 15.61, 15.99, 16.44, 16.15, 16.15, 16.15, 16.58, 16.88, 16.86, 16.54, 16.54, 16.99, 16.99, 16.09, 14.75, 12.58, 10.6, 9.33, 9.2, 6.95, 7.27, 4.4, 0.0, 0.0, 0.0, 0.0, 1.67, 2.82, 5.06, 7.06, 7.6, 7.6, 6.4, 5.37, 7.2, 8.48, 8.18, 7.81, 8.91, 11.18, 10.73, 0.0, -9.83, -10.28, -10.0, -8.53, -6.44, 0.0, 4.05, 5.51, 8.71, 4.47, -14.31, -11.18, -9.6, -14.3, -15.2, 0.0, 10.04, 9.42, 10.99, 11.37, 10.09, 9.84, 9.62, 8.15, 7.38, 7.34, 7.34, 6.36, 5.6, 5.6, 12.03, 12.03, 12.03, 12.03, 11.53, 11.53, 10.65, 12.42, 12.79, 13.57, 13.81, 14.23, 13.58, 13.58, 12.73, 12.37, 12.37, 11.54, 10.75, 10.75, 10.02, 11.06, 12.02, 13.02, 13.99, 15.18, 15.55, 15.99, 16.44, 16.05, 16.05, 16.15, 16.15, 16.15, 16.41, 16.41, 16.54, 16.99, 16.99, 16.54, 15.65, 13.01, 11.28, 9.33, 8.91, 8.8, 7.59, 8.22, 8.22, 2.97, 2.83, 4.0, 6.01, 6.28, 5.58, 6.45, 7.6, 7.6, 6.94, 6.32, 7.21, 8.94, 7.81, 6.64, 9.75, 10.28, 10.41, 10.28, -9.83, -10.28, -10.0, -5.6, -5.6, -6.87, -6.85, -4.43, 0.0, 3.14, 0.0, -8.43, -5.4, 0.0, 5.99, 7.36, 7.51, 8.54, 9.76, 9.8, 9.13, 8.83, 8.44, 8.44, 6.96, 6.67, 6.79, 6.27, 5.52, 5.52, 11.28, 11.28, 11.28, 11.53, 11.53, 10.65, 10.65, 12.42, 12.79, 13.39, 13.39, 14.23, 13.2, 13.58, 13.1, 12.73, 11.54, 11.54, 10.75, 9.73, 10.02, 11.06, 12.22, 13.02, 14.38, 15.27, 15.11, 15.55, 15.97, 15.97, 15.61, 15.61, 15.61, 15.61, 16.41, 16.41, 16.41, 16.54, 16.99, 16.99, 15.78, 13.88, 12.14, 9.54, 7.81, 9.33, 10.8, 12.72, 12.72, 11.2, 8.94, 7.15, 6.63, 6.32, 6.0, 6.45, 7.08, 7.15, 7.6, 6.79, 6.79, 8.94, 7.6, 6.64, 9.39, 9.39, 9.83, 10.41, 8.91, -9.83, -10.6, -5.4, -1.61, -3.65, -7.97, -8.77, -5.25, 0.0, 2.3, 0.0, -1.73, 0.0, 4.66, 6.09, 5.93, 6.4, 6.64, 6.64, 6.64, 7.13, 8.23, 7.44, 6.76, 6.15, 5.8, 5.71, 5.52, 5.52, 10.91, 10.91, 11.28, 10.65, 10.65, 10.65, 10.65, 12.42, 12.79, 13.81, 13.81, 13.39, 13.2, 13.2, 12.73, 12.73, 11.88, 11.06, 11.06, 10.02, 11.06, 11.06, 12.22, 13.02, 14.65, 15.27, 15.11, 14.66, 15.08, 15.53, 15.97, 15.18, 15.18, 15.18, 15.97, 15.97, 16.37, 16.37, 16.31, 16.66, 16.22, 14.9, 12.71, 10.52, 8.67, 9.75, 10.79, 12.79, 13.57, 11.16, 8.22, 5.21, 3.72, 5.36, 5.4, 5.26, 7.15, 7.6, 7.45, 7.15, 7.15, 8.49, 6.01, 0.0, 0.0, 7.6, 8.06, 9.83, 8.55, 0.0, -6.95, -7.59, 0.0, 0.0, -2.04, -6.1, -6.44, -2.98, 0.0, 0.79, 0.0, 0.0, 3.92, 5.51, 5.57, 5.5, 4.95, 5.11, 5.33, 5.55, 6.0, 6.0, 5.55, 5.43, 5.2, 5.2, 5.02, 5.02, 10.91, 10.91, 10.91, 10.65, 10.65, 10.65, 10.65, 12.42, 12.42, 13.81, 13.81, 12.81, 12.81, 13.58, 12.73, 12.73, 11.06, 11.38, 10.3, 8.93, 10.05, 10.05, 12.22, 13.58, 14.65, 14.84, 14.9, 14.23, 15.93, 14.31, 15.18, 15.61, 15.61, 15.04, 15.49, 15.93, 15.93, 16.37, 16.31, 16.31, 16.31, 15.34, 13.59, 10.96, 9.97, 10.6, 10.79, 12.27, 11.53, 8.85, 5.7, 2.54, 3.2, 6.71, 5.2, 4.92, 5.36, 6.94, 7.37, 6.79, 6.71, 7.6, 6.01, 0.0, 0.0, 6.01, 5.69, 9.39, 3.25, 0.0, 0.0, -7.27, 0.0, 1.78, 0.0, -3.18, -4.54, -2.72, -1.08, 0.0, 1.54, 3.33, 6.14, 5.36, 4.54, 4.18, 4.29, 4.42, 4.21, 4.43, 5.27, 5.8, 5.27, 4.1, 4.65, 3.73, 3.6, 3.6, 10.91, 10.91, 10.91, 10.65, 10.65, 10.65, 10.65, 11.9, 12.42, 13.56, 12.81, 12.81, 12.81, 12.81, 12.73, 12.73, 11.06, 10.02, 8.68, 8.28, 10.05, 10.05, 13.39, 13.58, 13.59, 14.42, 14.9, 14.03, 13.53, 15.04, 14.4, 14.84, 15.07, 15.61, 15.47, 15.93, 15.87, 16.31, 16.31, 16.31, 16.31, 15.87, 14.03, 11.84, 10.41, 11.03, 12.3, 13.15, 12.39, 8.22, 5.21, 4.96, 6.32, 8.05, 6.79, 5.6, 5.2, 5.09, 5.94, 5.94, 5.81, 5.37, 6.32, 0.0, 8.49, 8.05, 8.05, 0.0, 0.0, 0.0, 0.0, 0.0, -5.2, -2.81, -0.91, 0.0, -1.05, 0.0, 0.0, 0.79, 2.89, 4.31, 4.15, 4.26, 3.18, 3.06, 3.8, 3.67, 3.22, 4.55, 5.6, 5.4, 3.44, 2.81, 3.14, 3.68, 2.99, 2.99, 10.91, 10.91, 10.3, 10.3, 10.65, 10.65, 10.65, 11.9, 12.42, 12.81, 12.81, 13.2, 12.81, 12.27, 11.68, 12.02, 10.02, 8.68, 7.0, 8.28, 8.28, 10.33, 13.39, 14.39, 14.42, 14.42, 14.9, 14.4, 14.4, 14.4, 13.99, 14.42, 14.3, 14.65, 15.07, 15.47, 15.87, 15.87, 16.31, 16.31, 16.31, 16.31, 14.99, 12.71, 11.28, 11.03, 11.87, 13.86, 12.39, 8.53, 8.18, 8.4, 9.21, 8.94, 8.05, 7.15, 6.71, 6.26, 5.36, 5.81, 7.6, 5.69, 5.69, 6.01, 7.6, 7.6, 8.05, 0.0, 0.0, 0.0, 3.11, 0.0, -3.82, -6.0, -3.88, 1.03, 3.16, 2.31, 0.92, 0.79, 1.4, 2.32, 2.58, 2.95, 2.11, 2.59, 3.35, 3.32, 3.65, 3.96, 7.24, 5.4, 3.82, 1.55, 1.25, 2.62, 2.53, 2.53, 10.91, 10.91, 10.3, 10.3, 10.65, 10.65, 10.65, 10.99, 12.81, 12.81, 13.2, 13.2, 12.65, 12.27, 12.27, 11.68, 9.73, 7.54, 6.8, 4.95, 8.28, 10.05, 13.97, 15.27, 14.84, 14.84, 14.84, 14.4, 14.31, 14.75, 14.23, 14.23, 13.59, 13.59, 13.99, 14.65, 15.47, 15.93, 16.31, 16.31, 16.31, 15.87, 14.42, 12.45, 11.71, 11.28, 11.87, 12.72, 12.72, 12.3, 10.41, 10.08, 8.91, 8.82, 8.38, 7.45, 7.01, 6.36, 6.02, 5.16, 4.82, 7.63, 7.2, 7.2, 7.6, 8.49, 7.6, 0.0, 0.0, 0.0, 0.0, 0.0, -2.13, -4.58, -3.07, 1.97, 5.65, 5.65, 3.41, 0.0, -0.76, -0.89, 0.0, 1.18, 2.45, 3.9, 4.15, 4.52, 6.44, 7.24, 6.97, 5.0, 2.28, 0.0, 0.0, 0.0, 1.84, 1.84, 10.18, 10.18, 9.48, 10.3, 10.65, 10.65, 10.99, 10.99, 11.33, 12.81, 13.2, 12.65, 12.65, 12.27, 12.27, 11.68, 9.73, 7.54, 6.8, 4.95, 5.81, 10.05, 14.79, 15.71, 15.27, 14.84, 14.75, 14.31, 14.18, 14.61, 14.61, 13.97, 13.81, 13.19, 13.19, 14.23, 15.18, 15.04, 15.93, 15.87, 15.87, 15.87, 14.84, 12.45, 10.8, 11.28, 11.71, 12.3, 13.01, 12.58, 11.4, 10.08, 9.7, 8.91, 8.06, 7.63, 7.21, 6.88, 6.45, 5.75, 5.31, 5.09, 7.63, 7.21, 7.2, 6.32, 5.69, 0.0, 0.0, 0.0, 0.0, 0.0, 0.0, -1.33, -2.64, 1.26, 5.65, 6.97, 6.12, 3.39, 0.0, -1.3, -1.83, 0.0, 4.38, 6.65, 6.67, 7.24, 6.97, 5.98, 4.32, 2.28, 0.0, 0.0, 0.0, 0.0, 1.09, 1.09, 9.17, 9.17, 9.48, 9.48, 9.8, 9.8, 10.12, 10.99, 11.33, 12.27, 12.65, 12.65, 11.68, 11.68, 10.43, 10.43, 9.73, 7.54, 4.18, 4.95, 4.95, 11.06, 14.79, 15.71, 15.27, 14.75, 14.61, 14.18, 14.6, 14.99, 15.05, 14.61, 13.56, 13.81, 13.81, 13.81, 13.81, 14.75, 15.18, 15.93, 15.93, 15.93, 14.42, 11.6, 9.55, 9.6, 11.28, 12.14, 12.71, 12.71, 12.07, 10.96, 10.08, 9.64, 8.82, 7.94, 7.5, 7.5, 6.64, 6.2, 5.75, 5.29, 7.63, 7.21, 5.69, 4.0, 5.69, 6.01, 0.0, 0.0, 0.0, 2.49, 3.44, 1.63, -1.83, -5.02, 0.0, 1.83, 3.38, 4.01, 4.46, 2.89, 0.0, 0.0, 5.6, 7.28, 6.63, 5.0, 4.32, 1.98, 1.98, 0.0, 0.0, -1.55, -1.38, -2.16, -1.98, 0.0, 9.17, 9.17, 9.48, 9.48, 9.8, 9.8, 10.12, 10.99, 11.33, 11.33, 11.68, 11.68, 11.68, 10.75, 10.75, 10.43, 10.43, 5.99, 4.18, 2.21, 4.95, 11.06, 14.65, 15.71, 15.27, 14.75, 14.18, 14.18, 14.18, 14.6, 15.05, 14.6, 14.31, 14.31, 13.81, 13.81, 13.57, 14.42, 14.23, 15.18, 15.04, 15.93, 14.6, 11.21, 8.8, 9.96, 10.79, 12.27, 13.15, 12.71, 12.27, 11.62, 10.73, 9.83, 8.77, 8.33, 7.45, 7.6, 6.71, 6.26, 5.81, 5.26, 7.63, 6.4, 5.37, 6.32, 6.01, 3.6, 6.01, 8.49, 8.94, 7.27, 5.4, 4.38, 1.45, -9.73, -11.9, -6.34, -1.6, 2.36, 5.34, 5.02, 3.47, 0.0, 2.54, 4.55, 4.28, 3.47, 1.71, 0.0, 0.0, -1.77, -3.44, -3.96, -3.6, -4.12, -3.82, -1.98, 9.17, 9.17, 9.17, 9.48, 9.8, 9.8, 10.12, 10.12, 11.33, 11.33, 11.68, 11.68, 10.75, 10.75, 10.75, 10.43, 10.43, 8.18, 4.18, 2.15, 4.95, 12.22, 14.65, 14.84, 14.84, 14.42, 13.81, 13.81, 13.57, 13.96, 14.4, 14.4, 14.4, 14.4, 13.96, 14.4, 13.57, 13.57, 14.42, 14.42, 15.18, 15.18, 14.6, 11.95, 10.18, 10.48, 12.39, 13.28, 13.57, 13.59, 12.71, 11.84, 10.73, 10.28, 8.94, 8.49, 8.05, 7.6, 7.15, 6.71, 6.26, 5.81, 5.2, 7.2, 7.2, 6.01, 3.4, 3.6, 7.6, 8.49, 8.94, 8.91, 5.2, 5.45, 7.0, 2.05, -14.84, -13.2, -5.37, 0.82, 4.58, 5.57, 5.09, 2.81, 0.0, 1.61, 2.13, 1.08, 0.0, -1.38, -3.04, -4.39, -6.63, -5.6, -5.6, -5.4, -4.99, -3.82, 9.17, 9.17, 9.17, 9.48, 9.48, 9.8, 9.8, 10.12, 10.12, 11.33, 11.33, 10.43, 10.75, 10.75, 10.43, 9.22, 8.18, 8.18, 2.09, 0.0, 4.81, 10.75, 13.59, 14.3, 14.3, 14.3, 13.48, 12.79, 13.28, 13.28, 13.7, 14.13, 14.13, 14.13, 13.7, 13.57, 13.57, 13.15, 13.57, 13.99, 13.99, 14.23, 13.88, 12.39, 11.03, 11.12, 13.59, 14.84, 13.99, 13.28, 13.59, 12.27, 10.73, 9.83, 8.94, 8.49, 8.05, 7.6, 7.6, 7.15, 6.71, 5.81, 7.6, 7.6, 7.2, 7.2, 3.6, 4.0, 8.05, 8.49, 8.94, 9.39, 3.39, 5.2, 6.9, 7.88, 3.77, -13.59, -8.68, 1.09, 5.2, 7.03, 7.3, 4.23, 0.99, 0.0, 0.0, 0.0, -1.08, -2.13, -4.65, -6.08, -6.94, -7.18, -7.18, -6.7, -6.7, -6.7, 8.85, 8.85, 9.17, 9.17, 8.59, 8.59, 9.8, 10.12, 10.12, 10.12, 10.43, 9.44, 10.43, 10.43, 9.22, 9.22, 8.18, 6.6, 5.81, 0.0, 4.18, 10.75, 13.59, 14.11, 14.11, 14.11, 13.19, 12.79, 12.79, 12.39, 12.87, 12.87, 13.28, 13.7, 13.7, 13.27, 13.27, 12.72, 13.15, 13.57, 13.57, 13.39, 12.98, 12.04, 11.45, 11.99, 13.19, 13.59, 13.28, 12.87, 12.45, 11.84, 9.64, 9.39, 8.94, 8.49, 8.05, 8.05, 8.05, 7.6, 7.15, 6.71, 5.81, 8.05, 8.05, 7.2, 7.6, 8.06, 7.6, 8.49, 8.94, 8.94, 4.8, 3.11, 5.6, 5.92, 7.15, 6.67, 2.53, 6.88, 7.13, 7.91, 8.17, 6.5, 2.87, -1.71, -5.6, -4.43, -3.81, -4.65, -5.6, -6.44, -7.68, -8.24, -7.95, -8.53, -8.53, -8.53, 8.85, 8.85, 9.17, 8.3, 8.59, 8.59, 8.87, 9.8, 9.8, 10.12, 10.12, 9.44, 9.44, 8.18, 8.18, 8.18, 8.18, 5.81, 4.05, 0.0, 2.15, 9.73, 12.89, 13.89, 14.11, 14.11, 13.19, 12.79, 12.39, 12.39, 12.45, 12.45, 12.45, 12.87, 13.28, 12.45, 12.85, 12.85, 12.85, 12.72, 12.66, 12.66, 11.99, 10.8, 10.68, 11.6, 12.79, 12.79, 12.45, 11.62, 11.21, 10.96, 9.21, 9.39, 8.94, 8.94, 8.05, 8.05, 8.05, 8.05, 7.6, 7.6, 6.71, 8.05, 8.05, 7.2, 7.6, 8.06, 8.05, 8.49, 8.94, 8.94, 6.64, 2.02, 1.39, 1.13, 4.91, 8.4, 11.14, 11.45, 9.52, 8.89, 8.98, 7.45, 3.78, -4.81, -8.85, -7.96, -6.96, -6.53, -6.31, -7.18, -8.53, -9.5, -9.16, -9.16, -9.16, -9.16, 8.85, 8.85, 8.3, 8.3, 8.59, 8.59, 8.87, 9.8, 10.12, 10.12, 9.16, 9.44, 9.44, 8.18, 8.18, 8.18, 6.6, 5.81, 4.05, 0.0, 1.89, 7.54, 11.54, 13.29, 13.59, 14.11, 13.7, 12.79, 12.39, 11.99, 12.45, 12.6, 12.6, 12.45, 12.45, 12.45, 12.04, 12.85, 12.85, 12.72, 12.25, 12.25, 11.6, 10.4, 10.0, 10.48, 11.64, 11.99, 12.72, 11.21, 10.38, 9.55, 8.77, 8.77, 8.49, 8.49, 8.05, 8.05, 7.6, 8.05, 8.05, 7.6, 7.15, 6.26, 8.49, 8.05, 7.6, 6.8, 8.49, 8.05, 9.39, 8.49, 0.0, 0.0, 0.0, 1.28, 4.24, 6.94, 10.77, 13.91, 14.22, 12.21, 11.51, 9.89, 6.05, -7.44, -11.6, -9.76, -8.61, -7.68, -7.54, -9.08, -10.41, -9.82, -10.04, -9.67, -9.67, -9.67, 8.15, 8.15, 7.54, 8.3, 8.3, 8.59, 8.59, 9.8, 10.12, 10.12, 9.16, 9.16, 8.18, 8.18, 8.18, 6.6, 6.6, 5.81, 4.05, 1.83, 1.83, 7.54, 11.54, 12.65, 13.29, 14.11, 13.7, 13.28, 12.87, 12.87, 12.6, 12.18, 12.18, 12.18, 12.04, 12.04, 12.04, 12.04, 12.45, 12.04, 11.85, 11.85, 11.85, 10.4, 10.0, 10.8, 11.26, 11.26, 11.6, 11.45, 10.38, 9.13, 8.77, 8.33, 8.05, 8.05, 8.05, 8.05, 7.6, 7.6, 7.6, 7.6, 7.15, 6.71, 5.81, 8.49, 5.69, 5.37, 7.2, 8.49, 8.49, 8.49, 6.32, 0.0, 2.1, 3.07, 5.08, 6.2, 8.41, 11.3, 13.65, 14.31, 13.19, 12.2, 8.99, -10.12, -13.28, -11.37, -9.84, -9.17, -9.66, -10.0, -10.79, -10.8, -10.4, -10.4, -10.4, -10.4, 7.28, 7.28, 7.54, 7.54, 7.79, 8.59, 8.59, 9.8, 9.8, 9.16, 9.16, 9.16, 8.18, 8.18, 8.18, 6.6, 5.81, 4.05, 4.05, 1.83, 3.58, 6.8, 9.89, 12.16, 13.29, 13.29, 13.7, 13.28, 12.87, 12.87, 12.6, 12.18, 12.18, 11.76, 11.76, 11.62, 11.62, 11.62, 12.04, 12.04, 11.85, 11.85, 11.85, 10.8, 10.0, 10.24, 10.19, 10.87, 10.87, 10.4, 9.96, 9.13, 8.3, 8.33, 8.05, 8.05, 8.05, 7.6, 8.05, 7.6, 7.15, 7.01, 6.61, 6.17, 5.81, 8.49, 8.05, 8.05, 8.49, 7.2, 8.49, 6.32, 6.64, 3.11, 4.8, 5.75, 5.99, 7.19, 8.91, 11.16, 11.93, 12.81, 13.67, 14.56, 12.07, -11.38, -13.67, -12.72, -12.04, -12.07, -11.62, -11.62, -10.96, -10.96, -10.38, -10.6, -10.6, -10.6, 7.28, 7.28, 7.54, 7.54, 7.54, 8.59, 8.87, 8.87, 9.8, 8.87, 9.16, 7.93, 7.1, 7.32, 7.32, 5.81, 5.81, 4.05, 4.05, 2.02, 1.77, 6.6, 9.89, 11.54, 12.16, 13.29, 13.7, 13.28, 12.87, 13.02, 12.6, 12.6, 12.18, 11.76, 11.76, 11.34, 11.21, 11.62, 11.62, 11.62, 11.44, 11.44, 11.44, 10.55, 9.48, 10.24, 10.61, 10.19, 10.48, 10.0, 9.6, 9.55, 8.72, 8.77, 8.05, 7.6, 7.6, 7.6, 7.6, 7.6, 7.6, 6.58, 6.14, 5.26, 4.82, 8.05, 7.6, 8.05, 8.49, 8.05, 8.94, 8.94, 8.4, 6.95, 7.27, 6.44, 7.26, 7.85, 9.76, 10.79, 11.53, 11.86, 13.79, 16.01, 15.26, 0.0, -11.7, -10.79, 8.85, -0.0, -10.04, -11.28, -11.18, -10.73, -10.96, -10.96, -10.96, -10.96, 7.28, 7.28, 7.54, 7.54, 7.54, 8.59, 8.87, 8.87, 8.87, 9.16, 9.16, 7.1, 7.32, 7.32, 5.81, 5.81, 4.05, 4.05, 2.09, 2.09, 1.83, 5.81, 8.83, 10.75, 12.16, 12.9, 13.7, 13.28, 12.87, 12.6, 12.6, 12.6, 12.18, 11.76, 11.76, 11.34, 11.21, 11.21, 10.8, 11.2, 10.94, 10.94, 10.94, 10.24, 9.86, 10.61, 10.99, 10.19, 9.46, 8.93, 9.2, 9.13, 9.13, 8.72, 8.33, 8.05, 7.6, 7.15, 7.15, 7.6, 7.6, 6.58, 5.7, 5.26, 4.77, 6.71, 6.71, 7.6, 8.05, 8.49, 8.48, 9.39, 9.39, 8.8, 8.55, 8.58, 8.73, 8.93, 10.61, 10.79, 11.37, 12.27, 13.82, 14.19, 13.91, 7.07, 8.66, 11.18, 11.62, 12.07, -0.0, -8.22, -10.84, -11.18, -11.18, -10.73, -10.73, -10.73, 7.28, 7.28, 7.54, 6.43, 6.43, 8.59, 8.87, 8.87, 8.87, 9.16, 9.16, 7.1, 7.32, 7.32, 5.81, 5.81, 4.05, 4.05, 2.09, 2.09, 2.09, 5.81, 8.83, 9.89, 11.2, 12.51, 12.9, 13.28, 12.87, 13.02, 12.6, 12.6, 12.18, 11.76, 11.76, 11.34, 10.8, 10.8, 10.8, 10.8, 10.55, 10.55, 10.55, 10.24, 10.24, 10.61, 10.99, 10.19, 9.46, 8.73, 8.55, 8.8, 9.13, 8.67, 8.24, 8.05, 8.05, 7.6, 7.15, 7.15, 7.15, 6.14, 5.7, 5.2, 4.77, 5.94, 6.71, 7.15, 7.6, 8.05, 8.06, 8.48, 9.39, 9.83, 9.75, 9.2, 9.2, 10.0, 10.04, 10.37, 10.91, 12.33, 12.13, 9.24, 9.39, 17.81, 11.03, 9.75, 10.65, 9.48, 10.0, -5.0, -7.9, -9.67, -9.3, -10.18, -10.18, -10.18, 7.28, 7.28, 6.21, 6.43, 6.43, 8.3, 8.59, 8.87, 8.87, 9.16, 7.93, 7.32, 7.32, 7.32, 5.81, 5.81, 4.05, 4.05, 2.09, 2.09, 2.09, 4.05, 8.57, 9.6, 10.43, 11.8, 12.9, 12.79, 12.87, 13.02, 12.6, 12.6, 12.18, 12.18, 11.39, 10.8, 10.8, 10.4, 10.4, 10.4, 10.8, 10.55, 10.55, 9.86, 10.24, 10.19, 10.55, 10.19, 9.82, 9.09, 8.55, 8.8, 8.43, 8.67, 8.24, 8.05, 8.05, 7.6, 7.6, 7.15, 7.01, 6.58, 6.14, 5.2, 5.2, 5.09, 6.36, 6.71, 7.15, 7.6, 8.05, 8.24, 9.11, 9.83, 9.83, 10.28, 9.96, 10.38, 9.97, 9.62, 9.17, 10.12, 8.05, 3.07, 3.12, 17.63, 11.77, 8.73, 9.97, 8.58, 7.9, 7.59, -3.39, -6.2, -5.95, -5.7, -5.7, -5.7, 6.21, 6.21, 6.21, 6.43, 6.43, 7.19, 8.59, 8.87, 8.87, 9.16, 7.93, 7.32, 7.32, 7.32, 5.81, 5.81, 4.05, 4.05, 2.09, 2.09, 2.09, 4.05, 8.57, 9.6, 9.6, 10.43, 11.44, 12.5, 12.39, 12.21, 12.21, 11.8, 11.8, 11.8, 11.2, 10.8, 10.8, 10.4, 10.4, 10.4, 10.4, 10.16, 10.16, 9.86, 9.86, 9.46, 9.82, 9.82, 9.82, 9.09, 8.93, 8.55, 8.43, 8.4, 8.67, 8.24, 8.05, 8.05, 7.6, 7.6, 6.94, 6.51, 6.07, 5.81, 5.81, 5.51, 6.4, 6.36, 6.79, 7.21, 8.05, 8.49, 7.07, 8.48, 9.83, 9.39, 9.97, 9.96, 9.58, 9.08, 8.53, 8.15, 4.55, 0.83, 3.29, 14.86, 12.01, 7.78, 7.59, 10.28, 7.59, 6.98, 0.0, -0.0, -3.25, -5.7, -5.7, -5.7, 6.21, 6.21, 6.21, 6.21, 6.43, 7.19, 8.59, 8.59, 8.87, 8.87, 7.93, 7.1, 7.32, 7.32, 5.81, 5.18, 4.05, 2.09, 2.09, 2.15, 2.09, 4.05, 8.57, 9.6, 8.85, 8.58, 10.12, 11.9, 12.39, 12.21, 12.21, 11.8, 11.8, 11.2, 11.2, 10.8, 10.8, 10.4, 10.4, 10.0, 10.4, 10.16, 10.62, 10.62, 10.0, 9.48, 9.46, 9.46, 9.46, 8.59, 8.93, 8.03, 8.8, 8.8, 9.11, 8.67, 8.49, 8.49, 8.05, 7.6, 7.15, 6.94, 6.51, 6.26, 6.26, 6.26, 5.94, 5.21, 5.37, 5.37, 5.69, 8.49, 8.49, 8.0, 8.94, 8.94, 9.83, 10.18, 8.93, 8.93, 8.59, 7.85, 3.39, 4.15, 5.91, 7.64, 4.12, 9.8, 11.2, 11.18, 9.2, 6.5, 5.75, 4.8, -10.73, -10.28, -10.28, -10.28, 6.21, 6.21, 6.21, 6.21, 6.21, 7.19, 8.59, 8.87, 8.87, 8.87, 7.69, 7.1, 7.32, 5.81, 5.81, 5.18, 3.58, 1.83, 2.09, 2.15, 2.15, 5.81, 7.32, 7.82, 7.58, 8.58, 9.42, 10.94, 11.88, 11.5, 11.5, 11.12, 11.12, 10.73, 10.73, 10.35, 10.35, 9.97, 9.97, 10.0, 10.0, 10.16, 10.16, 9.77, 9.77, 9.6, 9.6, 9.32, 9.32, 8.93, 8.93, 8.03, 7.87, 8.8, 8.8, 9.11, 8.94, 8.94, 8.49, 7.6, 7.6, 6.94, 6.51, 6.51, 6.71, 6.71, 6.71, 5.94, 6.4, 5.37, 5.69, -0.0, 8.94, 8.94, 9.39, 9.39, 9.39, 9.64, 9.6, 8.24, 8.59, 8.22, 6.35, 9.0, 9.87, 7.14, -3.79, 8.85, 11.62, 10.96, 7.9, 6.76, 5.2, 4.15, 0.0, -10.28, -10.28, -10.28, 6.21, 6.21, 6.21, 6.21, 6.21, 6.94, 7.19, 8.59, 8.59, 8.59, 7.69, 7.1, 7.1, 5.81, 5.81, 5.18, 3.58, 3.58, 1.83, 2.15, 4.18, 5.99, 6.8, 7.82, 6.95, 6.95, 9.42, 10.94, 11.88, 11.5, 11.12, 11.12, 10.73, 10.73, 10.73, 10.35, 10.35, 9.97, 9.58, 9.58, 10.0, 9.77, 9.77, 9.77, 9.38, 9.1, 9.6, 9.32, 8.93, 8.55, 8.55, 8.03, 8.82, 8.8, 8.8, 9.11, 9.11, 8.94, 8.49, 8.05, 8.05, 7.6, 6.94, 6.36, 6.71, 6.71, 6.71, 6.51, 5.94, 5.37, 5.69, 6.01, 8.49, 8.94, 8.94, 8.94, 8.91, 9.83, 9.2, 9.2, 8.38, 7.18, 6.94, 7.84, 10.17, 7.29, 8.68, 11.45, 10.08, 8.23, 5.0, 4.32, 4.32, 2.42, 0.0, -3.25, -3.25, -3.25, 6.21, 6.21, 4.93, 4.93, 6.43, 7.19, 7.19, 8.3, 8.59, 7.44, 7.69, 7.1, 5.63, 5.81, 5.81, 5.18, 3.58, 3.58, 3.58, 3.58, 5.34, 6.8, 6.8, 7.16, 6.95, 7.93, 9.42, 10.94, 10.99, 10.99, 10.62, 10.25, 10.73, 10.99, 10.6, 10.6, 10.6, 9.97, 9.97, 9.58, 9.3, 9.3, 9.77, 9.77, 9.1, 9.1, 9.1, 8.93, 8.93, 8.55, 8.55, 8.82, 8.82, 8.43, 8.8, 8.8, 9.11, 8.67, 8.94, 8.49, 8.05, 7.6, 7.6, 6.79, 6.79, 6.79, 6.79, 6.79, 6.0, 5.06, 5.37, 5.69, 5.69, 8.49, 8.94, 8.94, 8.91, 9.83, 9.75, 8.55, 7.9, 5.4, 4.97, 5.46, 7.31, 8.14, 6.85, 8.73, 6.95, 5.7, 3.98, 2.19, 2.52, 2.0, 1.33, 0.0, 0.0, 0.0, 4.93, 4.93, 4.93, 4.93, 5.8, 7.19, 7.19, 7.44, 7.44, 7.44, 7.69, 6.88, 5.63, 5.81, 5.81, 5.18, 5.18, 5.18, 5.18, 5.34, 5.34, 6.8, 6.17, 7.16, 6.95, 7.93, 9.8, 10.36, 10.99, 10.62, 10.62, 10.56, 10.56, 10.6, 10.6, 10.6, 10.2, 9.97, 9.97, 9.58, 9.3, 9.3, 9.3, 8.58, 8.58, 9.1, 8.73, 8.37, 8.93, 8.55, 8.55, 7.68, 8.82, 8.43, 8.43, 8.8, 8.4, 9.11, 8.67, 8.49, 8.49, 8.05, 8.05, 7.6, 6.79, 6.4, 6.4, 6.4, 6.4, 7.6, -0.0, -0.0, 5.69, 5.69, 8.49, 8.94, 9.39, 6.64, 9.83, 7.27, 7.9, 5.2, 3.14, 3.2, 4.77, 7.22, 7.6, 8.14, 6.57, 5.7, 3.67, 1.58, 0.0, 0.0, 0.0, 0.0, 0.0, 0.0, 4.93, 4.93, 4.93, 4.93, 5.8, 5.8, 7.19, 7.44, 7.44, 7.44, 7.69, 5.46, 5.63, 5.63, 5.81, 5.02, 5.02, 5.18, 5.18, 4.66, 6.17, 6.17, 6.17, 7.38, 7.93, 8.51, 9.21, 10.36, 10.47, 10.62, 10.94, 10.56, 10.56, 10.18, 10.18, 10.6, 10.6, 9.97, 9.97, 9.58, 9.3, 9.3, 8.58, 8.58, 8.58, 8.58, 7.81, 8.37, 8.37, 7.9, 8.55, 7.68, 7.68, 8.43, 8.43, 8.4, 8.4, 9.11, 9.11, 8.94, 8.49, 8.49, 8.05, 7.6, 7.6, 6.4, 3.2, 5.37, 5.37, 0.0, -0.0, -0.0, -0.0, 5.69, 6.01, 8.49, 8.94, 9.39, 9.39, 9.2, 7.59, 3.68, 3.29, 3.28, 4.82, 6.17, 7.6, 8.83, 8.18, 7.11, 5.8, 3.16, 0.0, -1.58, -1.58, -1.84, -1.84, -1.84, 4.93, 4.93, 4.93, 4.93, 4.93, 5.8, 5.8, 5.8, 6.0, 6.0, 5.46, 5.46, 5.63, 5.63, 5.02, 5.02, 5.02, 5.02, 4.66, 4.66, 5.99, 5.64, 5.64, 7.16, 8.78, 9.21, 9.8, 10.47, 10.47, 10.48, 10.94, 10.56, 10.18, 10.18, 10.18, 10.18, 9.89, 9.52, 9.52, 9.17, 8.82, 9.3, 8.94, 8.58, 8.58, 8.15, 7.81, 7.81, 8.37, 7.9, 7.56, 7.68, 7.68, 7.68, 8.43, 8.05, 8.4, 8.0, 9.11, 8.67, 8.94, 8.49, 8.05, 8.05, 7.6, 7.6, 5.37, -0.0, -0.0, 0.0, 0.0, 0.0, 0.0, 0.0, -0.0, -0.0, -0.0, 9.39, 9.39, 9.83, 7.27, 3.53, 2.16, 3.25, 5.61, 7.22, 8.39, 9.39, 8.38, 8.51, 7.93, 6.27, 3.08, -4.15, -5.75, -5.98, -5.98, -5.98, 3.44, 3.44, 3.56, 3.56, 5.11, 5.11, 5.11, 5.11, 5.11, 5.28, 5.28, 5.46, 5.02, 5.02, 5.02, 5.02, 4.52, 4.52, 4.52, 4.24, 4.24, 5.48, 5.48, 6.6, 8.78, 9.21, 9.8, 10.47, 10.47, 10.48, 10.94, 10.56, 10.18, 10.18, 9.89, 9.52, 9.52, 9.52, 9.17, 8.82, 8.82, 8.41, 8.41, 8.58, 8.15, 8.15, 8.15, 7.81, 7.81, 7.9, 7.56, 6.95, 7.68, 7.68, 7.33, 7.51, 7.51, 8.0, 8.0, 8.48, 8.48, 8.49, 8.49, 8.05, 8.05, 7.6, 7.6, -0.0, -0.0, 0.0, 0.0, 0.0, 0.0, 0.0, -0.0, -0.0, -0.0, 9.39, 9.39, 9.83, 7.27, 2.1, 2.52, 3.68, 5.35, 8.12, 9.17, 9.49, 9.22, 9.39, 9.28, 8.74, 5.54, 0.0, -10.0, -10.4, -10.4, -10.4, 3.44, 3.44, 3.56, 3.56, 5.11, 5.11, 5.11, 5.11, 5.11, 5.28, 5.28, 5.46, 5.02, 5.02, 5.02, 5.02, 4.52, 4.52, 4.52, 4.24, 4.24, 5.48, 5.48, 6.6, 8.78, 9.21, 9.8, 10.47, 10.47, 10.48, 10.94, 10.56, 10.18, 10.18, 9.89, 9.52, 9.52, 9.52, 9.17, 8.82, 8.82, 8.41, 8.41, 8.58, 8.15, 8.15, 8.15, 7.81, 7.81, 7.9, 7.56, 6.95, 7.68, 7.68, 7.33, 7.51, 7.51, 8.0, 8.0, 8.48, 8.48, 8.49, 8.49, 8.05, 8.05, 7.6, 7.6, -0.0, -0.0, 0.0, 0.0, 0.0, 0.0, 0.0, -0.0, -0.0, 0.0, 9.39, 9.39, 9.83, 7.27, 4.8, 3.07, 4.12, 5.8, 7.48, 9.28, 10.25, 10.25, 9.87, 9.54, 9.42, 8.61, 5.75, -11.18, -11.28, -11.28, -11.28]}]